GFSWCAN_500_rhum_012.txt.gz
RH
100 100 99 91 88 60 23 23 29 39 49 60 57 51 36 27 26 25 18 12 8 8 8 8 10 11 14 18 15 23 20 16 16 17 17 17 17 18 20 21 22 21 23 23 23 23 20 21 27 31 46 69 55 62
100 95 89 98 59 24 23 24 27 34 43 49 56 53 49 37 29 26 22 18 15 12 13 15 18 19 18 16 15 22 18 19 17 17 18 18 19 20 20 22 22 23 24 22 23 24 25 30 28 32 61 69 70 70
100 100 100 100 92 27 22 22 22 26 35 44 49 53 50 43 37 31 29 22 19 19 19 17 16 19 20 19 18 19 19 16 18 18 19 19 19 20 21 20 24 23 30 26 25 27 30 31 34 45 67 82 81 78
100 99 100 100 95 64 26 20 19 21 27 34 41 45 45 42 40 35 34 32 23 24 19 20 19 19 22 23 23 19 19 20 19 20 19 19 19 20 19 21 19 24 29 32 29 32 32 41 56 68 78 86 86 76
100 100 100 100 100 97 50 19 18 19 23 25 26 28 37 45 43 38 37 33 31 29 30 24 22 23 20 23 24 24 23 23 20 20 20 22 20 24 18 20 19 37 35 36 34 35 45 57 66 77 93 93 80 71
100 100 100 100 99 100 91 78 36 25 23 24 24 23 21 25 38 42 34 31 34 30 26 24 26 24 22 21 20 21 22 22 21 21 21 20 20 20 18 18 24 37 39 38 38 47 54 71 89 92 93 84 76 72
100 100 100 100 100 100 100 100 100 100 98 46 27 23 20 20 19 23 35 47 46 40 31 27 22 22 26 25 22 25 24 23 24 21 18 22 25 26 23 24 42 43 42 45 64 64 68 86 96 94 89 85 83 83
100 100 100 100 100 100 94 87 97 99 100 98 84 55 45 41 32 24 21 36 59 53 46 36 23 28 38 30 32 34 31 35 29 31 29 33 39 41 34 44 47 45 55 71 68 77 90 100 97 94 89 86 85 91
99 100 100 100 100 100 98 86 77 85 90 100 100 99 97 94 75 43 34 33 36 38 42 38 40 42 47 52 60 60 57 56 49 44 46 46 39 34 43 41 39 42 58 75 79 93 100 99 91 84 86 85 90 96
64 89 100 100 100 100 100 90 80 91 100 91 95 93 83 82 77 61 56 48 38 27 20 17 22 31 44 47 51 54 54 51 40 38 47 39 28 35 42 57 64 80 87 94 95 94 92 87 82 84 84 89 97 97
10 27 55 70 67 71 68 76 66 73 98 100 88 84 82 98 99 97 98 92 72 56 48 28 22 25 27 37 52 62 54 57 53 46 50 42 41 64 94 100 100 98 99 91 87 88 86 85 86 84 92 98 99 92
15 8 10 25 56 66 52 45 69 82 100 100 95 98 100 100 100 100 96 84 72 68 60 60 64 62 69 78 86 91 95 98 83 74 73 58 63 66 77 82 81 83 98 100 97 85 93 99 96 100 100 100 91 78
14 14 8 7 21 67 92 47 45 66 98 100 100 100 100 100 100 99 78 62 69 62 54 62 78 91 100 100 100 100 100 99 92 80 69 73 76 92 90 96 88 82 99 100 100 100 100 100 100 100 97 83 74 66
10 11 13 9 6 15 40 77 95 86 69 96 100 100 100 100 99 100 91 72 63 64 71 74 80 98 98 100 100 100 100 99 97 86 82 98 100 97 94 97 96 100 100 100 100 100 100 100 100 92 85 75 54 38
13 11 9 9 8 6 6 10 17 55 98 100 100 100 100 100 100 100 100 99 95 91 89 88 85 98 97 100 100 100 100 100 100 100 100 98 99 100 100 100 100 100 100 100 98 100 99 99 95 87 66 49 36 28
11 11 12 12 10 8 7 6 6 6 17 64 99 100 100 100 100 100 100 100 100 100 100 98 99 99 99 100 100 100 100 100 100 100 100 100 100 100 100 100 100 100 99 98 98 97 93 85 66 47 36 32 28 26
11 10 9 8 9 10 11 10 7 6 7 19 45 85 85 96 100 100 100 100 100 100 100 100 100 100 100 100 100 100 100 100 100 100 100 100 100 100 100 100 100 100 100 97 87 70 52 40 36 34 32 30 27 25
12 11 10 9 9 10 11 12 12 10 7 6 10 14 26 30 58 94 100 100 100 100 100 100 100 100 100 100 100 100 100 100 100 100 100 100 100 100 100 100 99 91 71 51 41 37 36 36 36 36 35 30 26 24
14 13 13 12 12 11 12 13 13 12 11 10 7 7 15 27 39 75 96 100 100 100 100 100 100 100 100 100 100 100 100 100 99 99 99 98 96 90 82 67 47 37 34 34 36 38 39 42 41 35 29 26 23 25
16 16 17 15 14 12 12 12 13 13 12 12 15 22 27 46 53 56 63 80 92 94 92 95 96 96 97 98 98 97 94 93 90 83 70 59 52 42 31 31 33 38 39 41 43 43 40 36 31 27 26 30 41 42
18 19 18 15 11 9 9 9 12 15 18 47 66 47 50 55 78 90 91 80 68 70 64 63 67 66 61 55 55 60 60 55 43 36 29 25 24 27 32 40 43 44 42 40 39 36 32 29 30 31 36 36 40 57
12 11 11 12 12 12 16 40 54 44 64 100 97 100 100 100 100 98 85 75 70 66 62 54 44 34 27 22 20 21 22 22 24 25 28 31 36 39 42 46 44 40 36 33 30 27 26 30 39 44 49 43 39 51
8 8 12 26 63 35 70 86 69 72 74 89 96 96 89 84 79 74 69 60 48 37 29 26 22 20 17 16 18 26 29 35 37 37 38 38 39 44 44 42 38 33 27 24 28 34 38 42 46 51 62 53 47 59
16 17 66 98 100 100 82 100 88 74 69 70 81 90 88 75 60 49 45 42 35 33 29 23 19 19 27 46 52 48 41 38 38 41 46 45 45 42 40 33 31 30 32 35 34 33 33 37 43 53 71 64 55 65
100 100 100 100 91 76 100 100 95 74 54 74 85 81 98 95 78 54 41 37 27 21 20 20 21 31 42 41 38 37 35 43 43 46 56 56 47 39 36 32 34 44 38 32 30 28 24 34 47 48 66 71 61 72
100 100 100 95 100 100 100 100 98 100 100 100 98 82 60 50 40 32 26 27 25 26 27 33 41 43 41 42 48 56 57 58 58 56 53 50 44 35 31 36 35 30 30 29 24 19 15 27 50 50 64 73 74 93
99 94 96 94 100 100 100 100 100 98 89 66 40 31 28 27 26 25 35 28 29 31 39 44 46 52 60 63 64 56 49 49 49 46 43 41 45 45 39 33 29 29 30 28 24 19 20 31 44 57 76 80 92 100
100 100 100 100 100 100 94 81 62 46 40 38 38 37 35 33 33 32 30 35 39 44 48 51 56 58 53 49 45 43 42 41 42 48 52 48 40 36 36 34 33 31 30 29 27 24 26 35 46 69 77 81 90 96
99 98 98 93 82 72 62 52 44 41 40 39 42 42 41 38 36 40 42 44 47 50 52 53 52 52 48 45 37 35 39 48 51 49 42 38 38 39 39 38 36 33 31 30 30 29 30 36 45 62 82 89 93 87
100 99 96 80 63 53 49 45 42 41 40 39 35 34 34 39 48 51 52 56 60 58 54 52 51 50 44 44 50 53 52 51 44 40 38 39 40 40 38 36 33 31 29 28 28 29 31 37 43 50 66 92 100 100
69 60 56 52 48 45 41 39 35 33 33 34 35 36 42 49 48 50 54 54 52 47 42 42 45 49 54 56 54 48 43 41 40 39 38 36 34 31 28 25 23 22 23 23 25 28 33 44 60 81 98 98 100 100
48 44 41 37 33 32 30 30 33 36 37 38 36 35 35 34 36 39 44 46 51 56 56 55 53 52 49 45 42 41 38 35 32 30 28 25 22 20 18 17 17 17 18 19 21 24 32 48 74 92 100 100 100 100
40 41 41 41 42 45 44 42 39 36 37 39 42 52 61 67 67 64 61 59 56 52 49 45 42 39 36 33 30 29 29 28 24 21 19 19 18 18 17 18 18 19 21 22 24 27 31 44 74 100 100 100 100 100

GFSWCAN_500_rhum_015.txt.gz
RH
99 100 100 97 41 30 23 22 32 72 88 92 74 53 41 36 24 9 6 4 4 4 4 4 5 5 4 4 6 9 11 19 28 32 27 18 17 19 16 17 19 19 20 22 21 21 20 20 19 22 26 28 30 40
100 100 100 100 76 30 26 23 27 42 71 86 91 84 57 41 32 29 21 11 6 6 6 5 5 6 6 4 5 14 16 27 23 29 24 20 19 19 19 18 19 20 22 23 23 23 25 24 26 30 28 31 40 50
100 100 100 99 92 59 36 26 25 29 44 64 76 74 76 67 39 31 28 26 20 13 9 6 7 10 15 14 12 15 20 22 22 27 28 22 20 20 20 20 21 21 21 21 22 25 39 43 35 31 32 34 48 57
100 100 100 100 98 97 82 30 26 28 37 45 58 60 59 61 56 42 31 27 26 24 19 15 13 16 16 15 15 21 24 20 20 28 28 24 24 20 20 21 20 26 27 29 24 28 31 32 35 34 36 53 57 57
100 100 100 97 93 77 84 91 38 27 32 40 54 58 58 57 55 50 38 27 28 28 24 23 20 23 23 21 22 23 23 26 26 25 23 25 24 26 21 20 20 31 27 29 34 57 37 39 40 41 58 60 64 83
100 100 100 100 100 100 98 60 31 24 24 26 32 42 50 52 48 44 41 36 32 31 28 24 28 29 28 26 25 25 23 22 23 26 26 24 27 26 19 17 19 25 41 57 58 44 48 45 45 66 69 75 84 94
100 100 100 100 100 100 84 47 24 22 20 19 20 24 29 29 30 35 38 42 43 38 32 28 25 26 34 29 28 32 35 36 30 25 21 24 24 22 18 18 30 45 56 48 50 52 44 43 58 68 71 81 91 95
100 100 100 99 100 100 100 100 80 47 23 19 18 21 24 24 23 21 22 24 28 32 34 27 21 29 39 35 36 39 38 41 29 27 22 27 30 36 24 41 47 49 52 49 46 41 39 44 60 82 85 88 91 87
100 100 95 92 97 100 100 100 100 91 72 49 78 72 37 21 23 24 24 24 24 21 16 16 25 39 45 50 62 68 69 65 52 45 51 47 37 33 46 46 45 44 56 60 61 73 83 84 88 93 99 98 96 95
100 100 100 100 100 100 100 100 100 100 100 100 100 100 93 92 68 55 49 62 73 64 46 28 24 21 29 36 47 59 65 65 56 49 52 38 26 29 53 66 63 66 75 83 88 94 94 91 86 96 100 100 100 100
99 100 100 100 100 100 100 100 100 100 98 100 95 92 94 100 99 97 92 81 72 55 47 49 60 56 40 40 49 51 39 37 29 25 35 25 31 65 70 82 83 78 83 87 94 100 100 99 95 96 100 100 99 99
50 83 99 100 100 100 100 100 100 100 98 99 91 97 100 100 100 100 81 77 74 67 58 58 65 83 88 99 100 98 88 80 81 76 77 65 65 69 75 72 72 76 82 94 100 100 100 100 100 100 100 100 100 100
7 13 53 89 82 97 100 100 96 97 99 99 89 99 100 100 100 92 75 68 62 57 54 61 79 94 98 100 100 100 100 91 85 84 77 70 74 81 84 78 78 77 84 92 97 100 100 100 100 100 100 100 100 99
10 6 7 13 21 65 79 87 86 81 71 65 60 93 100 100 96 88 73 66 54 56 65 72 78 81 84 94 100 100 100 94 92 85 80 91 93 90 83 84 85 87 87 98 100 100 100 100 100 100 100 99 95 86
10 9 8 8 8 8 12 34 46 65 89 76 62 60 61 88 100 99 99 97 96 89 77 73 77 84 87 99 100 100 100 100 100 100 98 94 92 90 92 97 100 100 100 100 100 100 100 100 100 100 98 85 67 46
11 11 10 10 9 10 11 8 7 13 19 40 77 93 97 100 100 100 100 100 100 99 100 100 100 100 100 98 100 100 100 100 100 99 99 100 100 100 100 100 100 100 100 100 100 100 100 98 93 75 50 36 31 34
8 7 8 9 10 10 10 8 8 8 8 8 8 17 38 78 100 100 100 100 100 100 100 100 100 100 100 100 100 100 100 100 100 100 100 100 100 100 100 100 100 99 99 100 98 94 86 67 42 30 28 34 34 34
10 10 10 9 9 8 8 8 8 9 8 7 6 6 8 9 12 25 45 73 90 97 100 100 100 100 100 100 100 100 100 100 100 100 100 100 100 100 100 100 99 93 88 85 68 46 31 26 29 33 34 32 29 28
11 11 11 10 10 10 10 9 9 8 8 8 9 10 10 8 7 9 12 16 30 70 100 100 100 100 100 100 100 100 100 100 100 100 100 99 97 95 92 87 80 65 44 28 23 23 25 30 31 30 29 29 26 25
15 13 12 12 12 13 12 12 12 11 10 10 10 12 12 12 12 12 15 20 23 25 27 26 38 66 92 98 98 97 96 94 90 83 73 62 52 38 28 26 26 26 26 27 29 29 29 28 32 32 27 25 30 35
19 17 16 16 16 16 15 15 15 13 12 11 11 12 12 13 15 18 22 28 24 56 48 58 67 66 64 61 57 52 44 39 31 25 22 21 18 18 19 20 23 27 30 32 33 37 41 33 26 24 24 30 32 32
22 21 21 20 19 18 18 16 14 12 11 12 12 16 21 50 79 68 79 82 99 90 76 68 61 50 43 37 30 26 23 20 17 14 15 21 25 29 31 33 35 37 41 46 45 37 29 25 24 29 29 28 26 26
18 18 17 17 17 16 14 13 11 11 12 19 27 37 76 100 100 99 95 87 79 72 62 47 38 36 33 32 28 25 19 18 29 34 33 32 32 35 37 42 47 47 44 38 38 33 28 28 33 31 29 27 24 19
11 11 11 10 10 10 10 12 14 24 55 58 67 75 84 88 94 91 87 71 56 51 46 40 32 26 21 20 18 18 24 34 39 39 38 39 44 46 51 52 52 50 43 41 34 30 35 38 32 29 28 25 19 16
14 16 13 32 13 12 11 26 51 81 88 92 78 66 70 90 95 89 84 85 65 45 37 27 20 20 21 21 21 25 33 41 43 48 53 55 52 51 52 52 52 46 44 39 41 42 38 34 32 31 28 25 20 21
74 98 75 64 74 77 92 86 100 100 100 97 69 62 84 87 93 88 76 51 35 28 23 24 26 27 28 27 33 37 42 49 52 52 63 58 52 51 47 41 40 44 48 45 41 37 35 35 35 32 30 27 25 25
100 99 100 100 100 100 98 95 100 100 100 93 96 100 100 86 56 36 33 28 27 28 31 34 35 35 35 38 43 49 57 59 59 59 57 52 44 40 38 45 50 47 42 38 37 38 38 38 36 33 31 29 29 28
100 100 100 100 100 100 100 100 100 100 100 100 93 73 56 41 37 33 34 34 35 38 43 44 46 48 48 47 48 52 58 57 53 50 44 36 43 51 51 44 39 37 36 36 36 37 37 35 33 30 28 27 29 32
100 100 100 100 100 100 100 99 92 86 77 68 55 45 40 39 39 40 40 40 38 40 40 40 45 48 51 51 46 40 35 36 37 39 45 52 52 48 44 42 41 39 37 35 32 31 28 25 23 22 22 25 28 34
100 100 100 100 99 99 98 88 76 63 56 51 47 43 40 38 37 34 35 38 43 41 38 35 33 33 33 35 37 36 42 48 48 47 47 44 40 36 33 30 28 26 23 21 19 18 17 17 18 19 20 24 28 38
99 97 95 90 82 77 69 62 55 49 44 40 36 33 30 30 31 34 36 36 35 33 33 39 49 54 56 56 56 55 51 45 41 36 32 29 28 28 26 22 20 18 18 17 16 16 16 18 20 24 28 30 38 62
61 61 58 56 52 47 42 39 36 33 31 29 28 30 35 36 37 37 45 50 54 57 56 53 46 39 34 31 30 30 29 29 29 29 29 28 24 22 21 23 23 22 20 20 22 22 18 14 15 17 22 33 56 92
42 38 34 30 27 27 29 28 29 32 34 35 38 45 51 52 50 48 44 43 42 40 38 36 34 32 30 30 30 29 29 29 28 26 24 23 24 25 24 24 23 24 26 29 26 16 16 17 19 19 20 45 95 100

GFSWCAN_500_rhum_018.txt.gz
RH
100 100 100 100 85 45 81 98 99 88 73 56 23 16 13 7 6 6 7 7 7 7 7 8 9 8 6 5 5 6 6 6 7 10 15 19 28 27 21 19 22 23 22 24 24 23 21 22 22 21 22 36 43 36
98 100 100 99 58 50 68 89 99 100 78 65 57 41 21 16 9 6 6 6 5 5 6 7 8 6 5 4 4 4 4 5 6 10 15 20 24 23 26 24 27 25 27 25 24 23 23 22 22 22 24 31 47 36
100 100 100 90 46 40 39 57 85 91 98 88 70 59 47 34 22 14 9 7 6 6 6 6 5 5 4 3 4 6 7 8 10 14 20 27 30 30 31 32 28 28 26 24 25 30 28 26 21 22 33 52 39 37
99 98 99 77 46 34 28 32 58 75 85 96 94 86 64 50 43 34 29 24 16 13 8 7 6 5 4 4 6 7 17 36 36 32 27 30 29 27 28 28 28 34 27 30 24 26 22 22 25 39 55 42 43 45
100 99 100 93 54 36 31 29 29 40 53 75 82 82 87 87 75 59 42 32 28 26 24 24 19 15 13 12 11 10 10 16 24 28 28 29 32 32 26 23 24 39 36 33 25 25 24 30 52 53 45 49 47 41
100 100 100 99 100 81 41 36 31 28 25 35 55 63 63 63 66 68 66 64 46 30 25 25 28 25 23 20 20 21 24 28 27 27 25 23 27 26 19 18 23 38 37 33 28 33 40 48 50 46 46 43 39 51
100 100 100 100 100 100 95 89 70 33 28 26 32 40 51 53 53 47 44 53 53 47 43 37 30 30 28 27 29 32 38 40 36 29 27 29 34 29 21 19 43 41 48 48 52 51 46 45 42 45 48 54 81 95
100 100 100 100 100 100 98 97 94 80 38 31 26 27 31 36 42 42 43 44 42 40 38 31 30 34 39 36 40 44 44 64 47 44 38 43 35 37 21 51 54 55 54 48 43 41 43 46 56 72 83 97 100 94
97 100 100 100 94 91 98 100 95 83 75 37 25 26 26 22 20 22 25 26 25 26 24 24 24 25 30 38 48 59 67 63 52 49 59 54 43 40 57 56 53 46 39 43 60 67 70 79 84 92 98 100 99 100
100 100 93 95 100 100 100 100 88 55 42 42 39 31 22 19 21 22 25 22 19 17 15 14 16 23 35 40 40 43 43 41 35 37 46 40 31 34 38 34 36 42 50 77 81 77 74 72 82 96 99 100 100 100
100 100 97 86 82 90 91 88 99 100 97 62 40 28 26 37 47 48 39 25 21 20 21 27 63 73 67 54 72 95 82 65 47 51 62 44 34 36 44 73 74 71 70 81 90 89 88 91 94 100 100 100 100 100
100 100 100 99 93 87 89 98 97 100 100 99 98 97 96 93 95 96 84 75 72 68 57 67 81 94 87 88 98 95 96 89 72 68 66 52 55 64 71 71 67 66 68 75 83 99 98 98 100 100 100 100 100 100
94 100 100 100 100 99 100 100 100 100 100 100 100 100 100 100 99 80 67 61 68 66 68 73 87 99 95 100 100 100 100 91 90 86 71 61 69 70 68 64 67 71 76 84 87 84 94 100 100 100 100 100 100 100
54 87 86 94 100 100 100 100 100 100 100 100 100 100 100 97 90 79 82 81 79 84 86 82 82 80 80 98 100 100 100 100 96 87 79 86 87 88 79 75 74 78 78 79 88 99 100 100 100 100 100 100 100 100
6 11 25 30 56 98 97 100 100 100 100 100 100 99 95 97 94 89 84 79 76 76 75 74 74 72 74 90 100 100 100 100 100 95 86 83 85 87 85 85 94 100 100 100 100 100 100 100 100 100 100 97 80 62
7 6 6 5 6 30 62 48 77 93 60 98 98 98 100 100 95 86 78 70 66 61 66 76 83 91 94 88 85 95 100 100 100 100 98 95 97 99 100 100 100 100 100 100 100 100 100 100 100 88 74 62 42 31
10 10 9 7 6 6 6 7 8 16 43 30 38 62 44 84 94 100 100 99 99 99 100 100 100 100 100 100 100 100 100 100 100 100 100 100 100 100 100 100 100 100 100 100 100 100 91 79 63 46 32 27 29 31
10 10 8 8 7 7 7 6 7 7 7 8 8 9 9 14 21 19 31 55 75 85 92 93 97 99 99 100 100 100 100 100 100 100 100 100 100 100 100 100 100 99 96 93 89 76 50 32 29 30 30 29 29 32
11 10 10 9 9 9 8 8 8 8 8 7 7 7 7 7 7 7 7 7 7 7 8 10 12 16 32 82 100 100 100 100 100 100 100 100 100 99 96 92 87 77 54 35 25 24 26 29 31 32 33 33 28 29
15 15 14 11 10 10 10 10 10 10 10 10 9 9 9 9 8 8 8 8 8 9 9 10 10 10 13 20 37 53 56 50 47 44 43 36 36 30 26 26 22 17 17 22 25 26 28 31 36 37 36 37 33 27
15 15 16 17 16 14 12 12 12 12 12 13 12 11 11 10 10 9 9 10 11 13 14 16 21 45 55 54 59 60 57 54 46 39 34 29 26 21 16 14 14 18 20 23 26 31 35 36 37 36 33 30 28 28
14 14 15 15 16 17 16 15 16 16 15 15 14 13 12 11 10 11 14 17 29 36 48 82 92 82 72 64 58 50 40 37 37 34 31 27 21 18 19 21 26 31 33 36 39 40 41 40 38 36 35 32 34 38
11 11 12 12 13 13 15 16 15 15 15 14 14 12 11 10 11 14 22 60 81 97 94 90 81 72 61 50 44 39 24 22 23 21 18 16 20 30 39 43 43 42 44 45 44 42 42 40 38 38 38 39 41 38
12 11 11 11 10 11 11 12 13 14 13 12 12 12 13 18 36 61 78 87 94 94 88 74 58 59 61 57 29 18 19 20 18 18 20 24 31 40 48 51 53 54 55 51 48 45 40 36 41 48 48 44 39 37
11 11 11 11 11 11 11 11 11 11 10 12 16 37 57 73 72 66 60 85 100 92 86 86 78 61 44 24 19 20 20 23 27 29 30 33 37 45 54 57 55 54 52 49 45 40 43 48 48 45 42 40 39 39
15 15 14 13 20 23 26 13 12 14 26 43 77 96 93 88 85 68 65 99 90 78 73 68 49 29 23 24 24 26 30 30 33 34 36 44 48 49 50 50 48 49 47 43 43 47 46 43 41 40 40 39 38 37
73 81 85 76 67 85 88 83 66 77 85 100 100 100 100 95 70 68 91 90 77 47 33 29 28 27 27 26 31 33 36 41 46 47 48 52 52 50 44 38 36 37 38 41 43 40 35 32 30 29 28 26 25 24
99 98 100 99 100 100 100 100 100 100 100 100 96 100 100 100 100 100 92 68 46 39 36 35 33 34 35 37 38 43 48 43 34 32 34 38 43 47 52 52 48 43 39 34 29 26 25 24 22 20 18 17 17 18
100 92 80 90 94 100 100 100 100 100 100 100 100 100 99 97 85 71 59 49 42 40 38 38 38 35 33 33 34 35 34 38 52 57 57 52 48 41 36 32 30 29 29 29 27 23 20 20 19 18 16 15 17 20
96 100 100 100 100 100 100 100 100 98 95 94 91 86 75 62 56 53 50 48 44 38 34 32 32 33 36 37 40 45 49 48 40 36 32 31 30 30 30 30 30 29 26 22 22 24 23 21 20 19 20 19 16 17
100 98 90 87 86 86 90 86 78 67 61 58 54 50 49 46 42 38 34 32 31 30 31 35 41 46 45 43 42 40 38 35 32 30 28 28 27 28 28 26 24 23 24 26 24 21 19 20 22 23 19 14 15 18
56 58 58 58 58 56 53 51 47 44 40 36 32 28 26 26 28 30 36 39 42 46 46 45 45 46 50 51 46 41 36 32 29 27 26 26 25 24 25 26 27 28 27 22 20 19 18 21 24 23 15 15 17 20
51 50 47 44 39 34 32 29 28 27 29 32 37 42 46 47 49 51 51 50 53 58 63 65 65 59 51 42 38 35 32 28 25 24 25 26 28 28 28 26 25 23 21 22 22 20 20 23 28 24 17 17 20 26

GFSWCAN_500_rhum_021.txt.gz
RH
93 60 46 43 61 87 100 100 93 78 94 56 14 10 8 8 10 11 9 9 11 10 10 10 12 11 9 9 8 8 7 6 5 5 5 6 6 7 9 14 23 28 25 26 27 26 20 27 26 25 24 25 25 24
57 50 55 47 74 100 100 100 96 91 99 87 19 12 10 8 9 9 9 8 8 8 10 10 12 13 12 11 10 9 7 6 5 5 5 5 6 6 9 10 23 30 42 37 35 32 30 28 25 24 25 26 25 23
53 42 54 82 100 98 100 100 100 99 100 76 68 49 13 10 9 8 8 9 8 8 8 8 9 9 10 8 8 8 7 5 4 4 5 7 8 10 13 14 20 33 41 36 34 35 33 29 28 27 27 24 24 29
37 79 90 100 100 91 100 100 100 100 100 92 65 44 43 23 14 11 10 8 8 8 8 8 7 6 6 6 7 7 6 5 4 5 6 6 14 16 17 17 18 28 36 39 29 36 33 31 33 30 24 24 32 43
88 100 100 100 100 97 100 100 100 100 100 92 74 66 54 39 28 21 14 10 9 8 6 6 6 5 6 6 6 6 6 7 8 8 10 12 12 14 11 12 16 32 43 37 28 32 26 24 25 28 34 38 41 46
93 100 94 98 100 100 100 100 100 100 100 100 98 85 73 60 53 46 35 28 25 20 17 14 14 12 13 14 16 20 21 20 18 17 16 16 21 20 13 14 26 44 38 34 27 28 30 36 46 49 49 49 50 62
97 99 100 100 100 100 96 99 97 98 94 92 98 100 100 97 90 82 72 66 57 47 38 31 26 26 25 26 28 29 29 30 28 26 24 26 29 26 19 18 50 46 45 48 52 55 57 59 51 49 51 66 77 75
100 100 100 98 98 89 61 57 51 54 54 62 72 78 85 88 82 78 74 69 63 60 60 58 56 57 55 52 49 46 41 37 34 34 33 37 32 36 29 56 54 57 57 62 63 60 55 44 40 64 84 80 77 77
100 100 100 100 95 84 63 48 39 35 34 33 38 42 42 44 45 54 58 54 45 39 32 31 35 39 40 44 45 47 44 37 32 31 40 42 34 29 50 46 44 46 43 36 32 34 47 56 56 73 87 92 94 82
100 100 100 100 100 100 100 95 74 52 64 60 41 33 29 32 39 38 38 29 26 26 25 24 27 25 29 28 28 29 30 28 22 24 28 26 26 31 36 43 57 59 51 48 66 79 80 79 87 96 94 95 100 100
94 100 100 100 97 99 100 100 100 100 100 100 95 71 49 38 35 31 27 23 21 18 15 16 22 25 27 33 56 77 75 73 59 54 67 57 54 65 72 76 76 78 80 85 88 82 79 82 93 99 100 100 100 100
100 92 89 93 98 98 100 100 100 100 100 99 75 68 60 47 42 44 44 45 40 30 23 26 35 41 51 79 98 92 91 78 65 65 66 53 52 63 69 69 71 75 81 86 87 86 87 90 100 100 100 100 100 100
100 97 94 91 93 99 100 100 100 100 100 95 83 67 42 37 37 35 30 34 48 68 83 99 100 100 99 100 100 100 100 94 90 81 74 64 68 71 70 71 75 76 76 76 75 76 81 91 100 100 100 100 100 100
100 100 100 100 95 94 88 85 84 90 100 100 100 100 100 86 71 62 68 79 84 92 98 100 100 100 100 100 100 100 100 100 92 79 70 73 73 74 68 72 76 79 79 77 76 82 97 100 100 100 100 100 100 100
100 100 100 100 100 98 94 93 99 100 100 100 100 100 87 86 84 83 90 96 98 100 100 100 99 96 96 98 97 97 98 95 84 78 77 76 82 88 84 79 78 82 89 94 96 100 100 100 100 100 100 100 100 100
94 93 91 100 100 100 100 100 100 100 100 100 100 100 100 100 99 99 100 99 99 100 98 94 90 86 83 81 78 80 84 83 93 99 99 97 93 92 96 98 100 100 100 100 95 94 97 100 100 100 100 100 93 81
12 21 38 47 73 84 71 64 98 100 100 100 100 100 100 100 100 100 97 100 98 97 99 99 97 100 100 100 100 100 100 100 100 100 100 100 100 100 100 100 100 100 100 100 100 100 100 100 100 97 86 58 40 30
9 8 7 6 6 8 10 12 16 31 69 90 76 57 79 91 93 76 55 59 83 90 90 91 95 96 98 96 95 91 91 89 91 100 100 100 100 100 100 100 100 100 100 100 99 91 77 55 38 23 18 18 20 26
10 9 8 7 7 6 6 6 6 6 6 6 6 6 7 7 6 8 8 10 13 14 9 8 10 12 18 20 17 15 33 60 82 100 100 99 99 95 88 74 58 46 37 31 25 20 16 16 15 17 21 26 27 29
10 10 9 9 9 8 8 8 7 8 8 8 8 8 7 7 7 7 7 7 7 7 7 7 7 7 8 9 10 10 12 19 30 37 43 45 49 49 47 40 34 31 25 18 14 15 16 22 32 33 34 35 36 34
14 13 13 12 11 10 9 9 9 9 9 9 9 9 9 9 9 9 8 8 8 8 8 8 8 8 9 10 12 21 48 62 64 60 54 48 43 41 34 30 26 22 17 15 17 24 35 40 42 41 40 41 40 38
13 13 12 12 12 12 11 12 13 13 12 12 12 13 12 12 13 12 11 10 10 9 9 9 10 11 13 29 66 80 76 66 59 50 46 45 33 27 20 14 14 17 19 24 28 32 37 40 40 38 38 40 42 38
17 16 14 12 12 11 11 12 12 13 13 13 13 12 12 12 12 12 11 11 10 11 12 15 26 58 81 93 93 81 64 54 54 53 31 19 16 16 16 18 18 23 28 32 38 42 45 47 47 44 44 44 41 38
17 16 15 14 14 13 13 12 11 11 10 10 10 11 12 13 13 13 12 12 20 42 68 80 88 91 98 98 81 63 59 65 57 33 20 18 18 20 24 25 28 32 37 43 45 47 48 46 38 33 33 35 37 38
13 12 12 12 11 11 11 11 11 11 11 11 12 13 14 15 16 17 17 31 62 71 78 85 81 87 85 82 84 82 73 58 30 19 19 21 22 28 32 33 35 35 32 33 33 36 40 44 48 46 44 42 38 32
11 11 11 10 10 10 10 10 10 11 12 12 12 13 17 35 62 50 61 88 83 86 92 86 87 80 77 78 74 55 33 23 21 22 25 30 31 31 31 32 34 41 49 50 49 48 45 40 34 30 27 27 27 25
51 60 62 48 25 28 35 48 62 83 83 46 58 60 86 100 100 90 100 100 100 99 91 91 93 94 80 52 39 31 28 29 32 35 35 33 32 35 37 42 48 47 40 33 29 28 27 26 25 25 24 22 20 19
77 98 92 95 100 100 100 100 100 100 100 100 100 100 100 100 100 100 100 100 90 82 82 98 99 83 64 51 43 41 40 39 37 32 34 37 41 44 43 38 35 32 29 26 26 25 25 25 23 22 20 20 18 15
99 100 97 70 62 98 100 100 100 100 100 100 100 100 100 100 90 87 97 100 100 99 89 78 74 68 59 52 48 44 36 33 34 38 42 42 41 41 39 35 32 29 27 26 25 24 23 23 23 23 20 16 16 15
67 56 57 62 55 57 74 91 100 99 100 100 100 100 100 100 98 94 86 78 77 73 63 54 47 42 39 34 33 36 40 44 46 46 47 48 46 41 38 34 30 27 25 25 26 26 26 25 22 20 19 18 17 18
80 82 90 98 100 100 99 97 96 92 89 85 77 73 72 68 62 58 51 45 40 35 32 30 30 32 37 40 42 42 45 49 53 53 49 44 39 32 24 22 23 26 28 27 24 23 23 21 20 20 20 20 20 21
66 67 69 67 63 60 56 53 52 51 50 48 45 40 36 32 30 30 32 33 35 36 37 39 40 45 48 53 57 58 57 52 46 42 36 25 19 20 22 26 29 29 27 25 25 22 20 20 21 22 22 21 24 22
52 51 50 49 48 45 43 40 37 34 32 31 33 39 46 48 49 50 49 48 49 51 50 49 53 57 57 53 48 45 42 38 30 22 19 20 23 27 31 32 31 31 31 24 21 22 22 22 23 23 23 24 29 28

GFSWCAN_500_rhum_024.txt.gz
RH
100 97 88 50 44 39 37 56 94 100 67 67 65 59 15 11 9 14 31 16 19 20 20 17 16 14 13 12 12 12 10 8 8 7 6 6 5 6 6 8 10 12 17 22 28 28 24 34 34 34 32 30 28 28
100 90 74 46 41 42 65 89 97 99 80 86 83 14 12 10 17 50 24 16 17 18 18 16 15 14 12 12 11 10 10 9 8 8 8 6 5 4 4 4 7 9 16 15 18 20 27 31 34 35 34 31 29 30
98 85 52 41 37 32 43 85 96 100 96 99 75 14 13 11 56 95 63 32 15 16 14 14 13 12 11 11 12 15 14 12 11 10 8 8 6 6 5 5 6 12 16 16 18 32 34 33 28 30 30 32 34 35
89 57 42 36 30 56 98 100 99 100 100 100 67 16 15 18 56 98 97 60 23 18 15 14 13 12 11 11 11 11 11 11 9 7 7 8 7 6 4 4 4 8 15 20 16 28 27 31 34 36 33 32 31 30
70 60 44 34 44 76 100 100 100 100 100 100 99 49 20 17 16 56 88 56 30 19 13 12 11 9 8 8 9 9 8 7 6 6 7 6 5 5 6 7 11 22 34 26 21 27 23 26 30 34 34 38 45 54
63 48 40 41 64 100 100 100 99 100 100 99 97 97 100 91 49 17 13 13 13 12 11 10 10 9 9 9 8 8 7 7 7 9 10 10 17 17 14 16 30 35 35 33 27 30 32 38 42 47 53 61 62 54
34 36 47 77 95 100 100 100 100 100 100 100 98 83 70 61 46 30 22 24 17 12 12 9 9 10 10 12 15 18 20 23 23 23 23 24 25 26 25 26 45 43 44 50 52 50 53 62 58 59 54 46 42 47
83 100 96 100 100 100 100 100 100 100 100 100 98 98 86 77 73 65 53 44 37 35 29 24 27 34 41 42 40 40 39 38 37 40 43 42 41 38 34 39 48 54 58 61 60 55 45 40 39 37 45 73 86 84
100 98 98 100 100 99 100 100 97 100 100 100 100 100 100 100 100 100 100 97 88 77 72 71 74 75 74 73 65 57 49 43 38 34 34 34 29 25 24 27 33 36 36 35 36 57 75 78 71 69 88 93 91 91
99 100 100 100 100 100 100 100 94 100 100 100 100 100 99 100 100 100 100 90 79 69 59 57 62 57 62 60 50 38 33 30 28 24 24 23 24 35 47 51 69 80 78 80 84 86 89 86 91 100 100 94 89 90
100 100 100 100 100 98 99 99 98 96 94 95 86 86 88 89 91 84 62 48 42 36 37 43 49 50 46 33 30 25 21 22 18 21 38 44 57 69 69 81 87 85 85 87 91 90 86 89 92 90 87 87 90 96
100 100 100 100 100 100 97 96 85 63 55 51 49 48 48 46 41 33 26 26 24 23 25 35 44 40 33 33 30 28 27 24 25 33 48 54 62 79 83 82 80 79 79 76 76 81 86 89 88 82 78 86 100 100
100 100 100 100 100 100 100 100 99 95 94 96 95 94 96 93 85 77 60 42 37 36 44 45 46 61 61 79 91 92 86 78 84 81 77 71 80 84 81 77 75 73 70 65 62 59 61 67 72 88 98 100 100 100
100 100 100 100 100 100 100 98 100 99 100 100 100 99 96 85 70 61 58 62 58 53 49 52 54 79 99 100 100 100 99 96 86 81 81 87 89 85 80 78 76 74 72 74 82 86 82 92 100 100 100 100 100 100
100 100 100 100 100 100 100 100 100 100 100 100 100 96 85 85 83 83 81 77 76 74 83 93 100 100 100 100 99 98 99 92 88 95 92 88 88 84 83 80 82 82 81 79 78 82 91 94 93 94 95 100 100 100
100 100 100 100 100 100 97 97 100 100 100 100 94 90 89 91 91 90 87 90 90 90 89 91 98 99 100 100 99 100 97 92 96 97 97 96 93 90 90 89 86 86 87 91 94 98 100 100 100 100 100 100 93 78
100 100 100 100 100 100 100 100 100 100 99 96 95 100 100 100 100 100 100 100 100 100 100 100 100 100 99 100 100 100 100 100 100 100 100 98 95 95 96 100 100 100 100 100 100 100 100 99 88 66 52 33 20 16
40 63 95 100 87 95 99 100 100 100 100 100 100 100 100 100 100 100 100 100 100 100 100 100 98 94 89 84 75 62 49 34 20 20 24 44 76 100 100 100 100 100 98 92 86 67 42 25 20 20 19 16 12 12
17 12 12 16 34 40 36 33 48 53 58 63 74 74 71 84 93 96 88 78 62 40 26 15 14 11 8 7 7 7 7 7 7 8 8 9 11 28 46 53 50 50 49 45 34 27 19 16 12 12 13 14 16 19
11 10 10 9 9 8 8 8 8 8 6 7 6 6 6 6 6 6 6 6 6 6 7 7 7 7 7 8 8 8 8 8 8 9 11 19 32 44 57 58 52 46 39 30 24 18 16 14 15 17 20 24 29 33
15 14 13 11 10 9 8 8 8 8 8 8 8 8 8 8 9 9 9 8 8 8 8 8 8 8 8 8 8 8 9 10 12 19 40 70 76 67 50 47 49 38 22 21 20 16 17 20 22 24 27 30 32 33
18 16 14 13 12 12 11 12 11 11 10 10 10 10 10 9 9 10 10 10 10 10 10 10 10 10 10 10 10 10 10 14 33 78 95 89 62 55 56 55 46 27 19 18 18 19 23 24 24 25 27 28 29 31
19 18 17 16 15 13 12 12 12 12 12 11 11 11 11 11 11 11 11 11 11 11 10 10 10 10 10 10 11 17 35 66 89 100 99 85 63 61 60 56 38 20 18 20 22 26 27 27 29 31 34 39 41 40
19 18 18 18 18 18 17 16 16 15 14 13 12 12 12 12 11 11 10 10 11 11 12 12 12 12 14 23 52 72 84 87 98 99 82 73 74 75 64 35 23 21 23 27 30 28 28 32 36 38 36 31 28 26
18 17 16 16 16 15 15 15 16 16 16 15 15 14 14 13 12 11 11 11 12 14 16 19 21 30 60 84 93 95 95 89 82 78 81 81 72 42 34 28 28 30 33 32 29 33 39 39 36 33 30 28 26 26
12 12 11 10 10 10 10 9 9 10 10 10 10 10 10 11 12 13 13 17 23 36 52 77 85 90 96 100 99 91 85 90 94 92 81 59 52 46 41 41 42 40 34 33 37 40 40 38 34 32 28 26 25 24
14 16 18 31 37 30 17 13 15 19 26 33 39 29 25 38 40 32 45 87 100 100 100 100 100 100 100 100 99 96 100 100 98 84 68 63 62 59 52 43 34 34 39 43 43 40 36 35 32 27 24 23 24 22
44 44 56 55 65 59 70 79 93 99 95 95 97 99 100 100 100 100 100 100 100 100 100 100 100 100 100 100 100 100 95 90 87 83 76 63 48 38 32 34 39 43 43 38 35 35 31 22 19 22 24 22 21 19
59 72 65 64 56 67 93 92 91 100 100 100 100 100 100 100 100 100 100 100 100 100 100 100 100 100 100 100 96 87 80 68 54 40 33 31 32 36 38 40 40 41 42 37 28 18 18 23 26 24 23 21 18 20
75 62 55 52 49 50 59 67 77 91 100 100 100 100 100 100 100 100 100 100 100 100 98 95 86 74 61 48 40 34 31 31 32 35 38 40 40 40 43 45 44 36 24 19 20 24 28 28 28 24 19 19 21 22
83 80 73 68 67 75 88 97 100 100 100 100 100 100 100 94 83 72 60 51 44 39 35 33 33 33 34 35 36 37 39 39 38 36 38 42 44 43 41 34 24 19 20 25 30 31 32 32 28 21 21 23 22 22
48 50 52 57 60 63 64 64 62 59 56 54 52 50 47 42 38 36 38 37 40 44 45 45 46 48 48 46 42 38 36 36 40 42 44 42 37 30 23 21 22 24 28 33 34 34 33 32 24 22 22 22 22 24
62 58 53 49 44 39 32 31 34 36 38 37 36 36 39 45 50 52 52 51 50 49 48 51 60 61 55 46 41 39 40 41 39 34 27 23 23 22 23 26 30 34 36 36 36 35 33 26 22 23 23 23 24 26

GFSWCAN_500_rhum_030.txt.gz
RH
100 100 100 94 90 100 100 100 100 98 97 82 70 51 48 57 46 55 33 33 32 29 30 28 20 16 14 12 15 15 16 14 13 12 11 11 9 9 9 9 9 8 8 8 8 8 9 9 7 7 7 6 8 11
99 100 100 100 100 100 100 100 99 94 84 67 54 55 61 53 39 53 38 41 34 29 33 30 27 21 18 16 16 16 17 15 13 12 12 12 10 10 11 11 11 10 10 9 9 10 10 8 6 6 7 9 12 14
100 100 100 100 100 100 99 99 88 72 63 54 66 69 60 62 77 58 30 38 41 31 36 34 27 24 21 19 18 14 14 14 14 15 13 11 11 12 13 13 12 10 10 8 7 9 8 8 8 9 13 16 20 24
97 100 99 100 97 95 88 77 63 57 49 64 66 70 90 99 70 32 37 58 48 34 36 30 28 25 24 22 20 18 17 17 16 15 13 12 11 12 12 11 10 9 8 8 8 10 11 16 17 20 25 27 31 34
98 96 95 94 100 100 100 96 80 62 68 75 98 100 97 59 33 31 34 68 74 59 52 34 28 26 26 25 23 22 21 20 18 15 13 12 12 11 10 9 9 9 8 8 12 18 20 26 30 36 39 41 46 47
78 65 59 85 86 100 100 100 95 98 95 98 100 99 69 26 39 57 62 90 83 76 69 47 35 27 25 25 25 24 22 20 17 15 14 12 11 9 8 8 10 14 16 19 24 32 40 43 42 40 43 47 43 40
42 45 63 96 98 100 100 99 99 98 94 95 98 83 24 72 89 63 95 95 100 93 70 57 45 28 25 25 24 23 21 19 18 17 14 12 10 9 9 9 19 30 36 43 47 47 43 40 34 33 34 41 73 83
73 61 52 69 88 100 100 100 98 100 100 100 78 45 78 94 100 100 100 100 100 85 66 64 47 35 32 35 36 33 29 29 18 13 12 12 13 14 14 32 48 57 55 48 38 31 31 40 58 65 68 87 88 86
72 82 89 94 100 100 99 89 98 98 99 98 100 96 100 100 100 100 100 100 100 98 91 79 71 60 44 37 30 24 19 16 14 14 22 25 31 42 51 50 42 38 37 33 31 40 64 80 82 84 86 85 84 84
90 100 96 100 100 100 100 100 97 92 97 99 87 74 81 89 93 94 88 87 88 87 82 61 43 32 33 25 27 23 26 28 24 41 52 54 50 43 40 40 37 32 30 34 49 67 82 92 95 96 95 93 92 90
73 81 92 100 100 100 100 99 100 100 100 97 96 100 96 84 81 73 63 54 45 36 34 36 40 41 50 51 68 72 66 69 61 58 57 49 45 39 34 35 44 49 56 63 78 91 95 95 95 93 90 90 91 88
89 98 100 100 99 96 100 99 90 97 99 99 100 100 98 94 84 77 74 82 83 86 94 98 99 99 99 100 96 85 77 63 53 45 37 34 43 63 74 79 81 85 89 93 94 94 95 98 99 96 88 79 74 67
100 100 100 96 99 100 100 100 100 99 100 99 93 98 97 98 99 100 100 100 100 100 100 96 89 83 72 62 52 43 38 33 35 36 44 60 69 73 83 88 92 95 96 95 99 100 93 85 81 69 45 25 20 30
100 100 97 93 92 90 96 100 94 100 100 92 98 100 100 100 94 100 100 99 92 79 59 49 46 49 60 62 59 57 56 60 63 67 72 79 87 96 96 98 94 92 92 87 80 76 70 39 14 6 9 37 82 100
88 91 98 100 100 100 98 100 98 97 100 100 99 96 93 93 100 92 62 55 64 80 94 98 95 88 77 75 77 81 80 73 70 84 94 93 94 95 95 94 89 86 86 72 30 8 6 7 8 11 54 80 69 54
96 93 89 86 94 98 100 100 100 100 100 100 100 100 100 100 100 95 90 92 97 95 98 96 94 93 97 99 97 99 100 97 99 100 100 100 100 97 94 89 75 42 12 7 7 7 8 9 10 11 23 40 55 55
100 100 100 100 100 100 98 97 100 100 100 96 88 90 96 97 98 100 100 100 98 96 98 97 98 100 100 100 100 100 100 100 100 99 98 94 89 75 47 18 7 7 8 8 8 8 9 11 20 43 58 58 54 54
100 100 98 99 100 100 100 100 100 100 100 100 100 100 100 100 99 100 100 100 100 100 97 96 99 98 100 100 100 100 100 94 92 83 64 37 18 10 7 7 8 8 8 9 9 11 14 28 59 67 59 46 52 58
100 100 100 100 100 100 100 99 100 100 99 97 97 100 100 100 100 100 100 100 100 100 100 100 100 100 100 100 99 94 73 44 21 11 8 7 8 8 8 9 9 9 10 11 12 18 52 79 68 50 46 56 69 69
100 100 100 100 100 100 100 100 100 100 100 100 100 100 100 100 100 100 100 100 100 100 100 100 94 80 60 44 28 13 8 8 8 8 9 9 9 9 9 10 10 11 12 17 39 66 89 96 90 88 85 79 67 58
89 74 84 95 95 90 79 96 97 97 98 96 92 91 89 94 92 88 81 67 53 28 21 14 9 8 8 9 9 10 10 10 10 11 11 10 10 10 11 11 12 17 32 56 75 91 98 96 87 80 68 65 64 59
30 57 60 29 25 23 39 35 30 19 22 20 18 14 16 15 12 11 10 9 9 9 9 10 10 10 10 10 11 12 12 12 12 11 11 11 12 13 15 19 37 59 77 92 100 100 100 89 80 76 78 73 71 71
16 16 17 18 22 26 27 21 15 13 13 12 12 12 12 12 12 11 11 12 12 12 12 12 12 12 12 12 12 12 12 12 13 13 14 16 17 23 37 64 75 87 100 100 100 98 83 78 80 83 86 80 59 31
19 21 21 19 18 17 16 15 15 15 14 14 14 14 14 14 13 13 14 14 14 13 13 14 14 14 14 14 14 14 15 16 16 18 24 30 42 60 78 91 100 100 100 100 100 97 92 91 88 77 54 28 21 21
14 13 13 14 14 15 15 16 16 16 16 16 15 14 13 12 12 12 12 12 13 13 13 14 14 14 14 15 15 16 22 40 56 68 78 97 100 100 100 100 100 100 100 100 99 93 84 70 51 30 22 23 21 21
19 18 17 16 15 14 14 13 12 12 11 11 11 10 10 10 10 9 9 9 10 10 11 12 13 15 18 26 44 61 95 100 100 100 100 100 100 100 100 100 100 100 96 86 71 53 39 26 25 27 24 24 31 33
16 15 14 13 13 13 14 14 14 13 14 14 14 14 14 16 18 19 22 32 42 49 53 54 57 91 100 100 100 100 100 100 100 100 100 100 100 100 99 88 71 55 44 34 27 26 29 30 25 25 32 35 28 21
18 19 22 26 26 33 32 30 31 32 34 44 57 58 54 72 70 77 82 90 95 98 100 100 100 100 100 100 100 100 100 100 100 100 100 90 63 49 42 38 36 34 34 35 32 27 21 23 32 36 31 23 20 21
35 39 38 40 43 48 55 52 48 50 52 56 62 66 69 69 70 75 79 82 86 92 97 100 100 100 100 100 99 96 84 65 48 43 41 40 41 43 43 45 46 45 36 25 21 24 33 39 34 23 20 21 26 32
43 48 56 63 69 70 65 60 56 56 56 56 56 61 66 72 76 82 84 87 90 89 84 77 67 58 51 45 41 40 40 42 45 47 49 50 48 47 48 51 46 32 28 31 40 42 35 23 19 21 24 30 35 36
52 45 40 38 37 35 31 31 30 33 36 38 38 36 36 36 36 38 40 41 42 43 46 45 42 40 41 43 48 54 57 57 55 53 51 49 50 58 57 42 35 37 43 46 37 23 19 20 22 24 29 35 38 35
33 33 35 40 46 47 46 48 43 39 34 30 27 26 25 24 24 25 27 30 35 38 41 46 52 58 61 63 64 62 59 58 55 52 55 64 64 50 44 45 46 47 43 29 21 21 22 23 26 28 30 31 32 29
41 42 38 34 32 33 31 30 28 26 24 24 27 27 27 28 35 48 51 52 54 57 60 64 68 70 70 68 66 62 60 63 69 70 62 50 44 44 43 40 36 28 24 24 24 25 25 25 25 26 26 27 27 27

GFSWCAN_500_rhum_033.txt.gz
RH
100 100 100 76 71 17 71 100 100 87 77 87 100 100 99 61 100 85 100 78 58 70 45 31 27 28 25 20 17 15 15 13 13 12 16 14 12 10 10 10 9 9 9 9 8 8 8 8 7 7 7 7 7 7
50 70 29 59 91 100 100 95 100 100 100 100 93 89 82 100 99 99 90 58 48 46 45 27 28 25 29 44 33 19 15 14 15 13 13 22 12 12 12 11 12 10 10 10 11 11 9 8 7 6 6 6 8 8
100 100 100 100 100 100 100 94 100 100 100 100 100 100 100 100 89 99 78 50 37 37 44 34 30 25 28 45 36 19 15 16 15 15 15 14 12 13 12 11 12 12 13 13 12 10 9 8 7 5 6 8 12 17
97 100 100 99 100 100 100 100 100 100 100 100 100 100 98 73 82 98 76 48 41 38 44 29 32 28 23 32 26 16 16 16 16 15 16 15 14 13 13 12 12 13 12 11 10 9 8 8 5 10 14 17 24 33
100 100 100 100 100 100 100 100 100 100 100 100 98 86 91 82 100 100 51 40 45 39 34 36 32 32 29 27 23 21 20 17 16 16 15 16 16 14 14 13 11 12 10 10 9 8 10 11 10 18 25 37 43 42
96 100 100 100 100 100 98 98 100 100 100 97 78 67 63 67 100 99 94 66 51 50 49 33 32 31 30 31 27 23 21 20 19 18 18 18 18 16 14 13 13 11 10 10 11 12 13 22 31 41 45 43 30 26
99 95 89 81 77 76 72 76 79 86 85 76 68 65 69 89 99 87 66 51 81 76 47 42 36 33 33 30 27 25 23 22 22 22 21 20 19 17 15 14 14 13 12 14 21 32 33 50 43 40 30 27 33 56
100 100 100 100 98 100 100 99 92 84 90 100 100 100 100 100 100 64 55 100 100 99 84 53 36 35 31 37 40 30 26 25 24 23 22 21 20 19 16 17 18 21 24 39 45 47 42 36 33 30 26 29 44 65
100 100 100 100 100 100 100 100 99 98 100 100 100 73 63 96 81 46 99 100 95 100 93 83 76 70 60 50 51 45 32 30 31 28 32 28 22 17 22 31 42 53 48 43 39 38 35 30 27 29 41 60 82 89
100 100 100 100 96 100 100 100 100 100 100 100 94 84 77 82 80 76 100 100 100 91 85 92 82 68 57 55 50 45 44 45 35 30 26 20 17 23 49 59 54 47 42 39 34 31 32 45 67 86 95 95 96 98
100 100 100 100 100 100 100 100 100 99 99 99 93 98 99 100 100 100 100 100 89 73 76 85 80 74 62 59 57 49 42 36 31 30 33 25 29 68 72 62 52 41 37 42 61 74 83 91 95 96 96 97 97 95
100 99 98 100 100 100 100 99 100 100 100 100 100 100 100 100 100 98 98 100 100 97 98 92 85 77 60 50 44 42 43 43 37 48 56 43 60 66 51 42 45 52 63 70 84 95 99 97 98 100 100 91 66 32
93 87 96 95 100 100 100 100 100 94 94 93 85 89 90 96 97 100 91 78 67 58 51 50 48 48 63 70 81 88 94 82 78 74 60 52 47 40 41 55 68 72 80 98 100 100 100 100 96 89 52 20 7 6
94 100 100 100 100 97 94 100 100 100 100 100 100 98 96 98 91 90 81 90 89 90 97 100 100 100 99 99 92 86 76 67 58 51 44 48 52 64 76 83 91 100 100 100 100 100 95 86 51 15 7 6 7 8
92 91 86 94 100 100 100 100 100 100 100 100 100 99 98 95 95 97 99 100 97 98 94 77 65 60 58 55 57 67 72 72 69 73 85 86 83 82 89 98 100 100 100 98 94 81 46 14 7 7 7 8 9 10
100 100 98 92 93 93 93 100 100 100 100 100 100 90 90 97 99 100 98 96 96 85 64 58 66 82 97 99 96 87 78 76 81 87 93 99 100 98 97 98 99 98 92 78 45 16 7 7 7 8 9 9 10 14
100 100 100 100 97 86 78 74 77 89 100 99 100 100 100 100 99 97 99 98 96 98 100 99 99 100 99 99 100 100 100 100 100 100 97 98 100 100 100 97 90 76 41 15 8 7 8 8 9 9 10 11 14 24
92 90 94 95 100 100 100 100 100 100 100 100 96 92 91 99 100 100 99 100 100 100 100 100 100 100 100 100 100 100 100 100 100 99 100 100 99 96 88 67 31 11 7 7 8 8 9 9 10 11 12 20 32 50
100 100 97 96 95 96 100 100 100 100 100 96 96 99 100 100 100 100 100 100 100 100 100 100 100 100 99 99 100 100 100 100 100 100 98 88 60 27 10 8 8 8 9 9 9 10 10 11 12 15 25 40 60 78
97 98 100 100 100 100 100 100 98 100 100 98 100 100 100 100 100 100 100 100 100 100 100 100 100 100 100 100 100 100 97 83 64 43 21 11 9 9 10 10 10 10 10 11 11 12 13 14 24 37 55 75 95 100
74 88 96 96 100 100 100 100 100 100 100 100 100 100 100 100 100 100 100 100 100 100 100 100 99 98 93 82 57 27 13 9 9 10 10 11 11 11 12 12 12 12 12 13 14 16 22 36 55 67 90 100 100 96
17 35 59 72 71 72 78 86 88 88 89 90 93 93 95 94 95 90 76 67 58 46 32 23 17 13 10 10 10 10 11 11 11 12 12 12 12 12 13 13 14 15 16 20 25 40 62 74 93 100 100 100 94 89
14 13 14 17 27 39 40 42 34 29 33 29 29 29 26 21 18 18 16 15 13 12 12 11 11 12 12 12 12 12 12 12 12 12 12 13 14 15 16 18 22 27 36 62 81 95 100 100 100 99 96 94 85 68
15 14 13 14 15 16 17 18 18 20 21 20 18 16 15 14 14 13 13 13 13 13 12 12 12 12 13 13 14 14 15 15 15 15 16 17 19 23 47 65 75 91 99 100 100 100 100 100 99 93 79 57 41 27
25 20 17 16 14 14 14 16 17 18 18 17 17 17 17 16 16 16 16 15 14 14 13 13 13 13 13 13 13 13 14 15 17 23 43 60 85 100 100 100 100 100 100 100 100 100 98 85 66 46 34 28 28 28
30 21 17 15 16 17 16 16 14 13 13 13 12 12 12 12 11 11 11 11 10 10 10 11 11 11 12 13 16 24 38 72 100 100 100 100 100 100 100 100 100 100 100 100 91 69 50 40 35 35 37 34 25 21
24 16 14 13 14 14 14 15 15 15 14 13 13 13 12 13 13 15 17 19 20 22 25 30 36 45 57 68 74 100 100 100 100 100 97 93 91 98 100 100 99 82 64 49 43 42 43 44 46 44 32 25 28 38
18 17 18 22 25 29 28 30 29 32 34 32 34 35 40 41 42 40 42 46 47 50 59 65 69 73 79 85 90 94 96 94 93 97 100 100 99 88 71 54 46 46 46 47 49 48 48 52 47 33 32 39 42 32
26 28 31 31 34 37 40 44 46 48 49 50 50 50 48 46 45 46 48 51 53 57 59 62 65 73 80 85 89 90 84 72 61 53 46 43 42 45 50 53 56 57 56 52 49 53 57 48 38 40 45 43 28 20
40 44 47 50 50 48 44 43 42 38 33 30 27 24 22 23 25 26 28 29 30 31 34 37 38 40 40 39 40 41 42 42 43 46 50 55 58 59 60 60 59 56 53 55 61 58 45 39 42 43 38 26 21 21
38 35 33 32 30 27 24 25 27 30 32 35 36 36 36 34 32 30 27 26 25 24 24 25 27 32 35 37 40 42 46 52 57 62 64 66 66 65 63 61 62 64 63 54 39 31 28 27 26 25 24 24 24 24
36 32 28 27 28 29 29 29 28 27 27 28 29 28 27 24 23 24 24 24 27 34 41 43 43 44 44 46 50 54 57 61 64 67 68 69 70 69 66 49 30 20 17 17 17 18 19 21 25 28 27 27 27 28
28 29 30 31 31 29 27 25 22 21 21 22 23 25 29 33 35 36 38 39 40 40 39 40 41 44 50 56 63 68 72 72 71 63 49 30 19 17 17 18 19 20 20 20 19 19 21 25 29 32 31 30 31 32

GFSWCAN_500_rhum_036.txt.gz
RH
70 96 81 64 60 60 100 96 99 96 99 36 3 22 74 37 55 59 83 97 70 91 84 83 89 54 36 23 97 33 15 15 10 10 9 15 12 9 8 10 12 14 13 12 10 9 8 8 8 8 9 8 8 7
34 26 36 57 84 87 90 84 72 82 85 9 10 96 96 95 62 68 67 80 86 98 83 73 76 55 27 32 23 24 18 19 14 12 15 23 15 14 11 10 10 10 10 10 11 10 10 9 9 9 8 8 7 6
100 99 100 97 85 72 79 74 57 43 7 4 91 100 100 100 82 54 100 98 99 100 81 82 80 54 29 36 21 26 20 19 15 12 16 18 21 19 12 11 10 11 10 11 12 14 11 9 9 7 8 7 6 7
100 100 100 100 84 35 34 35 12 58 28 98 99 100 100 99 90 69 57 95 99 97 90 71 66 44 32 25 26 28 26 26 25 14 15 13 13 13 14 14 12 12 12 12 12 12 12 9 7 8 7 7 8 10
100 100 96 88 78 59 66 61 74 85 94 100 90 96 94 91 100 100 90 85 92 99 73 67 66 38 34 27 33 37 55 33 23 18 14 15 16 14 14 13 13 12 13 13 14 11 12 9 9 8 7 9 15 27
100 100 100 97 99 61 63 76 80 99 98 91 100 99 100 100 75 78 81 99 100 77 57 56 58 43 31 32 35 41 71 57 26 16 19 18 18 15 14 14 13 14 16 16 14 14 12 10 8 15 13 24 39 42
99 100 100 100 100 94 84 65 70 92 92 97 100 100 89 100 99 97 89 95 87 84 50 50 54 44 32 32 34 34 41 48 23 18 17 18 17 16 16 15 14 18 18 18 18 15 12 11 16 29 42 42 36 33
100 99 100 99 100 100 100 97 92 92 89 97 100 100 100 99 100 100 98 100 89 71 46 46 40 46 32 32 34 30 26 26 23 22 21 20 20 19 16 18 20 21 21 21 18 19 16 20 34 40 38 36 32 32
96 100 100 100 100 99 100 100 100 100 100 100 100 100 100 100 100 100 100 100 98 76 70 38 45 36 34 31 33 32 28 29 26 24 24 23 22 19 20 24 26 27 23 20 18 28 40 46 42 40 35 43 62 75
100 100 100 100 100 98 100 100 97 100 98 96 100 98 94 100 100 100 99 94 100 100 92 67 55 52 37 36 33 32 32 33 29 30 31 26 25 26 36 38 31 25 23 27 37 48 51 49 39 43 61 73 88 92
100 100 100 100 100 100 100 100 100 100 100 95 95 96 100 100 100 98 74 96 100 100 91 98 83 79 66 69 63 61 55 52 47 53 55 47 42 43 40 38 40 41 54 59 58 55 42 42 56 69 87 98 100 100
100 100 100 100 100 100 100 100 100 99 99 100 100 100 100 100 100 82 73 100 100 99 90 98 100 100 93 84 74 74 72 65 54 49 46 37 37 46 57 63 75 74 70 59 47 43 52 70 79 96 100 100 100 97
100 100 100 99 100 100 100 100 100 100 100 100 99 100 100 99 100 78 98 96 95 96 100 100 94 91 93 88 84 80 69 58 52 49 42 38 47 67 85 83 70 58 47 43 51 72 84 98 100 100 100 99 95 65
100 100 100 100 100 100 100 100 100 99 100 100 100 100 100 100 100 99 100 100 100 100 100 100 100 98 92 80 70 64 55 50 42 36 36 73 83 74 66 60 58 62 71 85 94 100 100 100 100 100 99 76 35 10
96 100 100 100 100 100 100 100 100 100 100 100 100 100 100 100 100 100 100 100 99 97 95 94 82 71 78 79 90 96 96 91 77 68 67 69 78 84 85 88 91 90 94 100 100 100 100 100 99 87 46 16 8 7
75 77 93 100 100 100 100 100 100 100 100 100 96 95 100 99 100 100 100 100 100 100 100 100 100 99 96 89 78 66 59 56 61 85 92 85 81 89 96 100 100 100 100 100 100 100 100 91 51 17 8 8 8 8
84 77 74 80 89 99 100 100 100 100 100 100 100 100 100 100 99 97 96 96 100 100 100 99 100 100 96 91 84 84 92 100 100 100 100 100 100 100 100 100 100 100 100 100 100 90 47 16 8 8 8 9 9 10
99 98 91 82 78 85 84 87 89 93 97 99 100 100 100 100 95 100 100 100 100 100 97 96 99 100 100 100 100 100 100 100 100 100 100 100 100 100 100 100 100 100 100 87 38 13 8 8 9 10 10 10 11 12
96 98 99 100 96 92 95 96 86 93 96 100 100 100 100 100 100 99 95 92 100 100 100 100 100 100 100 100 100 99 100 100 100 100 100 100 100 100 100 100 94 68 28 12 9 10 11 11 11 11 12 13 15 18
72 76 90 97 100 99 99 100 100 100 96 100 100 100 100 100 100 100 100 100 100 100 100 100 100 100 100 100 100 100 99 100 100 100 100 100 100 95 63 26 11 9 10 11 11 12 12 12 13 14 16 18 25 39
72 79 75 70 84 90 100 100 99 100 100 100 100 100 100 100 100 100 99 99 100 100 100 100 100 100 100 100 100 100 100 100 100 100 89 62 26 11 10 10 11 11 12 13 13 13 14 15 18 21 28 42 64 81
14 24 40 57 69 74 77 78 81 90 98 100 100 100 100 100 100 100 100 100 100 100 100 100 99 99 98 93 83 70 52 34 22 14 11 10 10 11 12 13 14 14 14 14 15 17 21 33 45 51 68 88 91 87
16 12 11 11 12 17 27 40 47 50 54 52 57 60 64 67 70 72 66 64 54 49 42 38 32 24 20 15 13 12 11 11 11 12 12 12 13 13 14 14 15 16 18 21 32 61 76 80 93 99 89 75 82 94
13 14 17 18 15 14 13 13 14 16 19 26 29 31 28 26 22 20 17 17 16 15 15 14 14 14 14 14 14 14 15 15 15 15 16 16 16 17 18 20 24 42 64 80 99 100 100 92 100 100 98 96 85 59
12 11 11 16 18 15 13 12 12 12 14 16 16 16 16 16 17 17 17 17 17 17 17 16 16 16 16 15 15 14 14 13 13 14 15 17 21 34 62 93 100 100 100 100 100 94 94 100 100 98 79 56 42 39
12 11 14 19 20 16 12 11 13 15 16 15 14 14 13 13 13 13 13 13 13 13 13 12 12 12 12 12 13 14 16 19 24 39 77 97 100 100 100 100 100 99 91 92 99 100 100 88 69 53 44 44 46 47
16 16 20 20 15 13 13 13 13 14 15 16 15 15 15 15 15 15 16 17 16 17 18 18 19 20 22 24 30 36 45 52 59 72 89 96 97 96 92 90 87 93 97 98 88 66 52 46 46 50 52 54 51 51
21 20 18 16 16 18 22 25 27 27 27 26 26 26 27 28 29 30 31 32 33 33 35 36 40 45 51 56 59 62 66 67 70 73 76 78 83 86 85 77 62 53 46 45 46 48 52 56 59 59 58 58 60 59
21 24 28 30 31 34 36 41 43 44 43 41 38 34 30 28 26 26 25 24 22 22 23 25 27 29 31 32 34 35 38 41 45 43 41 40 40 41 43 44 46 50 55 59 61 64 66 66 66 64 60 45 24 17
39 44 46 48 46 42 37 33 29 25 22 20 18 18 20 21 23 25 27 28 29 30 29 28 27 26 25 25 24 24 26 29 33 37 39 41 44 46 50 54 58 61 64 66 68 70 68 56 33 17 16 16 17 17
39 37 36 34 30 26 23 21 20 19 20 21 22 24 24 24 24 24 26 26 26 24 24 24 24 24 26 32 39 40 40 38 38 39 41 45 50 55 60 64 68 69 65 55 37 22 17 18 19 21 21 21 21 20
27 24 23 22 23 23 23 25 27 27 27 27 25 24 22 20 21 21 22 24 28 32 34 37 39 39 39 38 37 38 41 44 48 51 55 54 51 44 35 27 22 20 19 19 21 23 24 25 26 27 29 30 30 30
28 30 32 32 31 29 27 26 26 26 25 24 24 24 27 30 33 39 43 42 41 41 41 40 39 40 43 45 44 44 43 41 35 28 22 19 18 19 19 21 22 25 27 30 32 35 37 38 39 40 41 42 44 43

GFSWCAN_500_rhum_039.txt.gz
RH
100 100 93 77 87 98 95 84 65 46 84 80 19 22 1 2 2 3 3 3 4 37 90 80 68 71 65 39 29 48 84 81 76 33 24 10 8 8 8 15 24 26 26 25 24 24 23 19 14 11 10 9 10 10
75 81 85 90 100 100 92 84 63 87 100 100 70 20 2 2 2 3 52 23 15 56 93 92 78 48 73 40 38 39 97 99 63 30 13 10 8 9 9 8 11 13 13 11 11 10 10 9 8 8 11 11 9 7
67 79 92 100 100 98 80 84 84 92 100 92 60 8 2 2 11 14 53 77 58 95 100 93 76 68 52 35 41 41 40 99 37 29 17 11 10 16 17 11 10 11 11 11 11 10 9 8 8 8 11 10 9 8
47 40 49 62 74 61 81 95 95 91 92 86 20 2 2 25 100 35 58 78 100 99 99 93 88 69 52 42 40 40 84 98 62 34 18 14 17 23 28 20 13 11 12 12 14 10 10 9 9 9 10 9 10 9
67 86 74 50 68 80 92 81 72 70 46 21 2 1 19 92 32 46 70 80 99 100 98 98 96 84 77 77 66 51 100 89 43 25 19 12 14 18 22 19 16 14 15 15 14 13 13 13 14 14 13 11 11 10
100 59 94 87 65 59 61 72 57 38 15 2 2 82 70 100 77 81 100 94 100 100 100 100 98 88 82 100 92 58 52 65 41 30 18 14 15 18 18 18 17 16 16 15 14 13 14 16 17 16 14 14 14 16
64 74 98 96 91 99 50 16 9 7 1 20 43 32 64 62 55 99 100 98 93 100 98 100 98 100 100 97 96 70 46 37 35 32 24 20 20 20 19 16 18 15 17 17 16 16 17 19 21 19 17 16 17 28
93 58 51 71 27 24 31 48 31 31 42 63 80 57 70 71 100 100 100 100 100 100 100 98 78 79 95 78 62 46 30 28 44 46 38 36 34 21 16 15 17 19 21 22 23 20 20 25 24 21 21 25 40 47
100 91 60 78 81 88 69 86 86 98 95 89 98 100 100 99 100 100 99 100 99 99 86 77 85 74 62 56 52 40 31 32 34 43 50 52 46 29 17 19 22 22 23 28 27 27 31 29 24 23 34 49 56 50
100 93 81 94 88 49 49 54 29 53 71 99 100 100 100 98 95 86 82 77 84 97 99 85 68 57 56 58 52 41 33 32 34 33 32 32 31 28 22 24 27 27 28 32 41 41 34 31 34 51 63 60 48 44
100 99 94 86 82 87 94 97 84 98 100 75 98 84 65 63 80 90 84 67 51 64 66 62 71 66 62 67 62 50 40 36 35 34 31 26 24 26 31 37 44 48 54 50 42 39 43 50 67 70 57 46 49 69
100 100 100 100 94 90 94 95 95 88 85 65 68 67 74 91 85 65 69 61 64 69 72 68 78 72 78 66 67 66 56 59 51 43 40 32 33 46 65 72 68 59 52 49 52 62 77 78 65 51 48 68 89 99
100 100 99 100 100 98 98 99 100 100 93 100 100 100 100 83 74 72 76 87 87 100 100 100 100 95 83 90 85 87 90 75 66 59 54 61 81 80 76 70 62 57 54 67 89 84 68 57 58 78 97 100 100 100
100 100 100 100 100 98 100 99 94 98 100 99 96 96 86 100 100 99 89 96 92 99 96 100 100 100 100 100 99 97 94 92 85 77 76 78 74 67 62 61 83 92 85 76 68 73 86 96 100 100 100 100 100 99
100 100 100 100 100 100 100 100 99 100 100 100 98 100 99 100 100 96 90 96 93 100 100 100 100 100 100 97 94 93 94 84 78 75 71 69 79 93 90 81 72 73 85 87 89 97 100 100 100 100 100 99 97 84
98 100 100 100 100 100 100 100 100 100 100 100 99 99 99 98 97 98 100 100 99 100 99 99 98 98 99 98 97 97 92 76 82 99 96 85 71 66 75 95 97 98 100 100 100 100 100 100 100 100 100 93 57 18
73 85 99 100 100 100 99 99 99 100 100 100 100 100 100 100 100 100 100 100 99 100 99 99 100 100 97 100 100 98 100 100 100 98 96 99 100 100 100 100 100 100 100 100 100 100 100 100 100 98 66 25 11 10
73 72 74 75 75 91 99 100 99 97 100 100 100 100 100 100 100 100 100 100 100 100 100 100 100 100 100 99 100 100 100 100 100 100 100 99 98 99 100 100 100 100 100 100 100 100 98 95 56 18 11 10 11 12
95 91 85 79 77 77 77 76 86 98 100 100 100 100 100 100 100 100 100 100 100 100 100 100 100 100 100 100 100 100 100 100 100 98 99 99 99 100 100 100 100 100 100 100 98 76 42 19 12 11 12 14 14 14
77 74 81 88 90 86 96 100 95 94 100 100 100 100 100 100 100 100 100 100 100 100 100 100 100 100 100 100 100 100 100 98 99 99 100 100 100 100 100 100 100 100 98 74 35 16 12 12 14 15 16 16 16 18
37 51 66 68 72 88 93 96 100 100 99 100 100 100 100 100 100 100 100 100 100 100 100 100 100 100 100 100 100 100 100 100 100 100 100 100 100 100 100 98 80 42 18 12 12 13 15 16 16 17 18 22 27 43
11 15 26 41 57 67 70 76 95 100 100 100 100 100 100 100 100 100 100 100 100 100 100 100 100 100 100 100 100 100 100 100 100 100 99 93 65 31 14 13 13 14 15 16 16 16 16 18 18 21 29 44 60 95
10 10 10 9 11 15 24 41 54 60 66 75 83 88 92 95 95 95 98 99 100 100 100 100 100 100 100 100 100 96 79 55 30 16 13 13 14 14 14 15 15 15 15 16 17 18 21 29 44 72 91 93 89 85
12 11 10 9 8 8 8 9 10 10 11 13 18 26 32 36 35 33 29 27 26 23 21 19 17 17 16 16 16 16 16 16 16 16 16 16 16 16 16 16 17 19 21 25 36 60 88 99 100 97 97 98 93 96
9 9 8 9 9 9 8 8 10 11 10 10 9 9 11 13 15 16 17 18 18 18 18 18 18 18 18 18 17 17 16 16 16 15 15 15 16 17 19 26 39 55 88 100 100 100 98 96 97 99 98 98 98 82
18 15 14 14 12 11 11 11 12 12 12 10 10 11 13 14 15 15 15 15 14 14 14 14 14 14 14 14 14 14 14 15 15 16 20 23 30 39 48 63 75 81 91 95 100 99 99 100 99 92 75 57 51 50
22 18 15 14 14 15 16 14 13 13 14 14 14 15 16 17 17 18 18 18 18 18 19 19 20 20 20 21 23 24 27 33 38 41 46 49 54 60 63 69 76 84 88 88 85 76 63 51 46 45 46 48 52 55
17 17 19 18 19 18 17 19 24 26 28 28 27 29 30 30 27 26 24 22 22 22 23 24 25 24 24 24 24 24 26 28 30 33 35 41 43 43 42 40 36 34 32 33 35 37 40 44 50 57 62 66 68 68
20 18 19 20 20 25 27 30 35 36 36 34 33 32 28 25 22 19 17 17 17 19 20 22 23 23 25 25 27 27 27 26 26 25 25 24 25 26 30 36 41 40 41 43 46 50 55 60 65 67 67 60 44 24
22 32 40 43 44 42 39 36 32 28 25 22 20 19 17 17 18 19 21 22 22 21 21 21 22 23 24 24 23 23 22 23 24 27 32 38 40 39 38 38 41 43 45 47 46 44 39 32 25 20 19 20 20 22
41 38 33 30 26 24 22 21 20 20 19 19 20 21 23 25 25 25 24 23 22 21 21 21 21 22 26 30 33 36 39 40 40 39 39 39 40 40 40 40 39 34 28 22 19 19 19 20 23 26 29 32 35 38
23 22 23 24 26 25 24 25 24 23 24 25 25 24 24 25 24 24 24 24 27 30 35 41 42 42 42 42 42 41 41 41 41 42 42 41 38 32 26 21 20 21 25 30 36 42 49 55 61 66 71 75 77 78
31 34 34 29 27 26 24 23 22 22 25 26 29 29 31 33 36 39 41 44 47 50 50 49 48 48 49 49 47 46 44 40 36 29 23 22 25 32 40 49 55 58 61 63 65 67 70 74 78 84 92 97 100 100

GFSWCAN_500_rhum_042.txt.gz
RH
100 100 100 100 100 100 100 96 78 57 44 40 43 46 35 8 2 2 2 3 3 3 10 6 10 10 11 29 12 23 44 25 48 42 53 31 41 39 31 12 8 10 16 24 29 28 23 28 30 28 31 28 25 20
100 100 100 100 100 98 96 91 70 56 57 65 65 54 34 7 1 2 2 3 2 4 72 45 23 12 9 36 29 29 40 42 50 66 52 43 38 82 17 9 8 9 18 24 31 28 24 24 17 13 14 15 14 13
100 100 100 100 100 86 63 63 69 81 80 70 60 35 16 2 1 2 2 3 4 44 100 94 68 42 10 19 42 49 68 69 54 66 100 89 54 42 17 9 8 9 11 13 12 11 10 11 12 13 14 13 11 10
99 97 92 89 83 78 91 91 80 63 44 42 49 34 24 11 1 2 3 3 4 13 57 90 71 47 17 16 28 50 89 88 78 99 99 93 58 36 20 13 11 12 12 11 11 11 12 13 13 12 12 12 12 12
96 100 100 100 100 100 97 91 66 99 80 83 88 58 14 2 1 2 70 97 78 18 60 99 93 91 54 35 29 42 86 65 53 83 98 90 64 39 18 18 18 15 17 15 13 15 16 14 13 13 12 11 12 14
50 60 96 100 100 98 89 68 80 98 100 88 52 20 2 1 2 5 67 57 100 52 65 86 81 92 74 92 98 83 90 66 50 68 88 100 85 37 20 20 25 25 24 20 18 17 17 16 16 16 16 18 19 20
71 44 51 64 69 91 86 93 99 98 93 49 13 3 1 1 2 58 63 66 49 52 100 100 97 84 99 94 96 78 62 54 44 59 70 100 63 29 21 21 22 20 21 22 22 20 19 18 18 19 21 22 23 28
100 100 54 56 71 96 90 79 74 71 30 6 3 1 2 76 100 97 100 100 98 100 100 99 98 100 98 97 95 99 90 79 88 100 83 61 54 37 25 23 25 25 26 24 22 22 22 22 22 23 25 27 35 34
47 16 23 29 41 42 49 55 32 7 3 2 5 23 62 76 69 89 98 100 100 99 100 99 100 70 96 95 72 79 89 99 100 98 84 95 88 65 40 32 37 44 37 25 22 23 24 25 28 29 36 43 39 36
92 91 50 5 4 3 3 3 2 2 26 90 88 100 100 95 100 100 100 100 96 100 100 99 100 100 74 88 88 82 100 100 99 97 93 83 69 62 58 54 57 52 43 35 28 26 29 32 40 50 50 45 42 52
58 90 83 55 11 4 2 8 14 11 58 83 99 100 100 100 100 100 100 100 100 99 92 84 70 71 78 86 83 91 96 92 88 59 60 51 43 44 42 45 43 40 42 35 36 38 46 60 62 55 50 54 72 81
78 55 70 72 33 45 35 13 40 52 63 80 93 97 99 100 100 100 98 84 74 67 62 61 75 82 79 80 78 78 72 65 67 60 57 42 40 46 52 53 56 57 53 52 58 68 70 65 58 56 72 85 80 71
94 87 57 74 97 87 80 93 100 100 99 100 100 100 100 92 94 100 100 100 98 91 96 97 93 88 87 82 83 73 77 84 76 69 64 59 60 62 61 61 65 73 85 87 81 72 63 59 75 90 80 78 87 99
96 94 93 75 74 95 100 100 100 100 84 100 100 100 100 100 100 100 100 89 79 81 82 86 83 90 98 92 83 82 75 84 92 87 85 84 90 97 100 100 100 98 90 83 73 71 85 86 78 81 89 97 100 100
97 98 97 93 91 94 90 98 100 99 100 100 100 100 100 100 100 100 97 90 84 72 76 91 92 97 100 95 95 88 86 83 84 96 100 100 100 100 100 100 97 94 94 92 84 77 80 94 99 100 100 100 100 100
86 95 99 100 98 96 97 99 100 96 94 99 100 100 100 100 96 86 83 83 80 78 82 96 97 89 99 100 100 100 99 96 100 100 100 99 94 87 84 92 98 94 87 89 97 100 100 100 100 100 100 100 100 100
88 85 91 100 100 100 90 95 97 96 98 100 100 98 87 95 93 85 87 94 100 100 100 100 100 100 99 99 100 100 100 100 100 99 98 100 100 95 94 91 94 98 100 100 100 100 100 100 100 100 100 100 100 99
79 90 96 93 88 90 95 94 87 79 87 88 84 96 100 100 93 95 96 100 100 99 97 89 99 96 94 94 96 100 98 100 100 100 100 100 100 97 94 97 99 99 98 100 100 100 100 100 100 100 100 100 88 50
84 82 83 86 92 97 100 100 100 100 98 91 79 75 77 76 81 87 88 91 89 93 100 99 99 100 99 99 100 100 100 100 100 100 100 95 90 99 100 100 100 100 100 100 100 100 100 100 100 98 86 48 20 16
90 88 82 82 86 85 85 89 97 100 100 100 100 97 96 97 98 99 99 99 100 100 100 100 100 100 100 100 100 100 100 100 97 95 96 100 100 100 100 100 100 100 100 100 100 100 99 87 58 30 18 17 17 18
33 57 66 69 71 75 87 93 97 99 99 97 100 100 100 100 100 100 100 100 100 100 100 100 100 100 100 100 100 98 100 100 100 100 100 100 100 100 100 100 100 100 100 100 88 58 28 19 17 18 18 18 19 21
7 8 11 25 51 69 80 93 100 100 100 100 100 99 100 100 100 100 100 100 100 100 100 100 100 100 100 100 100 100 100 100 100 100 100 100 100 100 100 100 98 78 52 32 21 17 18 18 20 20 20 23 29 42
10 9 9 9 8 8 10 13 23 30 52 72 90 98 100 100 100 100 100 100 100 100 100 100 100 100 100 100 100 100 100 100 100 100 100 100 96 88 82 64 43 23 18 17 18 18 20 22 25 34 46 62 82 89
7 8 7 8 7 7 7 7 8 8 7 7 8 9 11 17 30 50 68 81 90 92 88 85 85 77 77 74 62 56 46 42 38 33 30 23 20 18 18 18 18 17 18 20 28 40 52 62 72 84 91 94 96 99
14 18 16 14 12 13 10 8 8 8 8 8 7 8 10 10 10 10 11 12 14 16 18 19 19 19 20 19 18 18 18 17 17 17 16 16 16 16 17 20 24 29 32 36 43 53 60 69 79 87 94 97 98 92
26 25 24 22 20 18 15 12 9 10 11 13 12 12 12 12 11 12 14 15 16 16 16 16 17 17 16 16 17 17 17 17 18 18 19 19 22 25 28 32 37 43 49 58 70 81 89 94 91 81 64 44 36 36
31 31 28 25 20 14 11 11 12 13 16 16 16 16 17 18 19 19 20 20 20 20 20 20 20 20 20 20 21 21 22 22 22 21 20 21 21 24 30 34 38 40 41 42 40 36 33 30 29 33 38 42 44 43
35 30 27 22 14 13 13 14 16 19 23 25 26 26 28 29 30 30 29 27 24 22 20 18 16 15 15 15 16 17 18 19 20 21 23 24 26 26 26 25 25 25 25 25 27 29 35 41 42 42 42 43 46 46
35 32 20 16 17 17 21 30 34 36 36 35 33 31 29 27 24 22 20 18 17 16 16 16 18 19 20 21 20 20 20 20 20 21 22 23 24 23 24 27 32 39 44 45 45 44 43 43 43 42 39 32 25 22
28 20 20 22 27 31 34 33 30 27 24 22 21 20 20 19 19 18 19 19 20 21 22 23 24 24 23 21 20 20 20 20 22 26 28 33 38 40 41 41 41 41 41 41 40 37 33 29 25 24 26 32 39 47
25 25 27 26 24 20 19 18 18 20 20 21 22 23 24 24 24 24 24 24 24 23 24 24 24 24 26 30 35 39 41 41 41 42 42 42 41 40 40 39 35 31 28 26 28 31 37 43 48 51 55 57 60 63
22 20 20 20 21 21 23 26 28 29 26 22 22 22 23 24 26 26 26 29 32 34 36 38 40 43 46 45 45 46 46 47 47 45 40 32 27 25 25 26 28 30 30 29 26 25 23 24 24 25 27 30 32 36
24 24 26 27 33 36 32 29 26 24 28 38 43 46 49 51 52 50 51 55 59 59 57 55 54 54 52 49 45 38 29 24 22 24 25 24 22 21 21 22 23 23 22 21 20 19 18 18 17 17 18 18 19 21

GFSWCAN_500_rhum_045.txt.gz
RH
100 100 100 100 100 100 100 100 100 100 100 97 41 36 26 24 14 2 2 2 4 4 6 8 6 6 9 11 10 11 21 24 27 34 93 72 64 38 33 27 25 40 45 18 9 9 15 26 32 32 38 38 48 53
100 100 100 100 100 100 100 100 100 100 100 62 40 33 29 34 15 12 16 2 3 4 5 8 6 6 7 8 11 11 15 21 26 29 65 88 53 42 40 34 35 37 38 19 8 10 18 25 33 34 38 41 36 27
100 100 100 100 100 100 100 100 100 100 99 54 41 39 35 34 19 16 20 2 3 3 5 7 7 7 6 8 19 10 15 23 29 27 83 92 67 46 37 32 36 44 25 8 8 10 20 28 28 22 19 18 15 15
100 99 100 100 100 100 100 100 100 78 57 51 50 46 39 37 21 17 17 2 3 4 4 17 13 15 14 7 23 15 28 31 49 97 100 99 91 81 71 56 52 55 14 9 9 10 13 14 16 16 16 16 15 16
100 100 100 100 100 100 100 100 100 99 91 65 44 42 48 41 19 3 7 2 3 4 5 24 31 68 44 11 15 36 27 27 55 78 82 74 68 71 78 84 53 49 16 12 16 16 16 16 16 18 18 18 16 16
97 100 100 100 100 95 74 68 65 56 56 56 60 57 46 31 6 5 38 9 6 5 22 99 84 83 71 38 28 23 41 46 54 75 94 80 80 84 100 86 65 52 20 21 27 28 24 21 20 18 18 16 16 16
93 100 100 100 89 84 74 60 54 45 36 37 33 32 16 7 4 2 3 3 3 14 91 100 100 100 94 71 54 29 43 63 83 96 97 79 77 89 95 89 95 56 28 28 29 28 25 22 22 20 19 18 19 21
76 97 100 99 97 92 71 69 81 66 99 100 100 100 99 96 41 5 6 16 10 55 100 100 100 99 93 91 75 45 48 58 71 92 93 88 74 58 75 82 82 83 50 36 32 27 24 24 23 21 20 21 24 26
40 89 96 88 76 78 84 91 92 93 100 100 98 72 43 17 14 14 25 18 38 42 31 66 90 100 98 90 81 90 86 86 74 84 96 98 68 45 46 73 100 99 54 42 38 38 40 42 41 33 30 29 29 33
29 36 60 68 64 78 89 92 80 73 45 22 17 6 16 4 13 99 69 86 80 53 22 47 100 98 100 97 78 96 98 100 98 98 100 87 74 67 94 96 96 98 98 79 65 58 60 55 46 40 36 34 42 57
6 20 31 39 38 24 11 8 5 3 2 4 60 56 17 58 87 100 100 100 100 88 26 66 98 100 95 97 94 99 98 99 99 99 99 99 99 100 96 92 100 100 94 71 63 62 66 67 65 64 60 56 68 75
5 4 4 4 10 62 90 82 42 36 8 3 34 94 96 95 100 100 100 100 99 100 100 100 97 96 100 99 100 100 98 99 97 87 95 95 99 100 100 100 100 100 81 62 66 78 85 80 74 68 76 84 78 70
23 38 67 100 94 100 73 96 95 100 100 99 100 100 100 100 100 96 100 99 100 100 98 91 82 75 86 92 96 99 93 77 77 80 75 75 70 67 64 64 63 66 73 79 87 85 80 85 99 96 87 82 93 96
55 38 73 86 95 100 96 100 100 100 100 100 100 100 100 100 100 100 100 99 99 95 98 81 72 55 50 63 67 69 57 57 58 53 54 63 85 84 75 75 83 82 79 83 90 99 100 100 100 100 100 99 93 99
100 94 92 84 98 100 100 100 100 100 100 100 100 100 100 88 93 93 94 100 96 87 76 69 69 75 80 74 72 69 68 67 64 63 67 78 83 87 90 98 100 100 100 100 100 100 100 99 98 100 98 100 100 100
100 100 100 97 86 96 100 100 99 100 100 94 91 96 91 88 92 85 84 87 88 87 86 82 79 77 88 98 95 84 89 87 84 87 86 86 87 94 98 94 94 95 94 98 100 100 100 100 100 100 100 100 100 100
100 100 100 100 100 100 100 97 94 86 86 81 77 73 84 91 84 87 92 86 94 91 90 91 92 96 92 89 88 81 87 100 98 96 99 97 92 90 91 98 100 100 100 100 100 100 100 100 100 98 96 100 100 100
100 100 100 100 100 100 100 100 100 99 100 100 96 96 99 99 94 89 92 100 96 95 87 95 100 100 96 87 91 100 100 100 100 100 99 96 94 93 97 100 100 100 100 100 100 100 100 100 100 100 100 100 100 100
98 100 100 100 100 100 100 100 100 100 100 100 100 100 100 100 100 100 100 100 100 100 100 100 99 96 100 98 100 100 99 99 99 94 93 97 98 100 100 100 100 100 100 100 100 100 100 100 100 100 100 100 100 100
73 74 77 80 82 86 95 100 100 100 100 100 100 100 100 99 99 100 100 100 100 100 100 100 100 99 100 100 100 100 100 100 100 100 100 100 100 100 100 100 100 100 100 100 100 100 100 100 100 100 100 100 90 60
86 84 78 72 70 70 74 79 83 86 93 100 100 100 100 100 100 100 100 100 100 100 100 100 100 100 100 100 100 100 100 100 100 100 100 100 100 100 100 100 100 100 100 100 100 100 100 100 100 94 78 59 40 25
10 17 25 36 58 74 87 90 93 98 99 100 99 98 98 100 100 100 100 100 100 100 100 100 100 100 100 100 100 100 100 100 100 100 100 100 100 100 100 100 100 100 100 100 100 100 95 80 70 54 39 30 23 22
7 7 7 7 8 9 11 17 24 35 53 63 75 88 96 100 100 100 100 100 100 100 100 100 100 100 100 100 100 100 100 100 100 100 100 100 100 100 100 100 100 100 98 94 81 69 51 37 26 27 33 45 58 66
7 8 10 9 10 9 7 6 6 6 7 8 6 6 6 8 10 15 22 31 48 71 85 92 97 99 100 100 100 100 100 100 100 100 99 98 96 94 81 69 52 38 29 23 22 23 27 30 32 36 41 49 57 62
9 13 12 13 14 13 16 12 12 11 9 9 9 9 8 8 7 8 9 10 10 11 12 14 16 17 19 20 21 26 27 31 28 25 24 21 19 19 19 20 20 21 21 23 26 29 33 37 40 47 56 64 73 78
18 19 18 16 16 20 20 17 16 13 14 14 12 10 10 11 13 14 13 13 13 14 15 16 16 17 18 19 19 19 19 19 20 19 20 20 20 20 20 20 20 20 19 19 21 23 26 28 29 29 29 29 30 30
21 20 22 21 26 28 25 20 16 16 17 17 14 13 15 17 19 19 20 21 22 23 24 24 23 22 21 20 19 18 16 16 15 14 14 14 15 15 16 17 18 19 22 23 24 25 25 25 26 27 30 35 42 47
26 31 38 38 36 34 29 20 17 17 17 16 17 22 26 29 31 32 31 30 28 27 25 24 22 19 18 16 15 14 14 14 14 16 18 19 19 19 19 18 19 20 20 23 27 32 36 40 43 44 45 45 44 43
48 52 51 50 46 33 21 20 21 19 20 22 26 30 30 30 28 26 24 22 21 20 19 18 18 17 17 17 18 19 21 22 22 22 21 20 19 20 22 26 30 34 38 40 41 41 41 39 36 31 29 28 29 32
71 65 56 40 29 25 23 20 18 18 18 17 17 16 17 19 20 20 20 21 22 24 24 24 24 22 22 21 21 22 22 22 22 25 28 34 38 39 40 39 37 33 27 21 18 17 18 19 20 21 21 21 21 22
61 38 31 28 24 19 18 18 18 19 20 23 24 24 26 25 24 22 22 22 23 24 24 24 24 26 27 28 30 31 34 38 40 40 38 36 33 26 19 17 16 16 16 17 18 19 20 19 19 19 18 17 17 17
36 30 25 18 17 17 20 24 26 27 28 27 24 23 25 30 37 42 43 42 43 43 44 47 50 50 50 49 47 46 42 36 26 21 18 18 17 18 18 18 17 17 16 17 17 18 19 20 19 17 14 12 11 10
22 16 16 20 25 29 30 30 31 33 35 30 30 35 44 48 50 48 50 54 55 54 53 51 49 44 35 25 20 20 21 21 20 20 20 20 20 20 20 19 18 18 17 17 18 20 22 23 22 17 12 9 6 3

GFSWCAN_500_rhum_048.txt.gz
RH
77 77 85 82 91 100 100 100 100 100 100 100 100 100 100 66 47 44 12 8 4 3 4 10 12 11 15 17 17 17 11 14 13 12 20 83 96 83 72 72 48 53 54 40 33 36 25 25 11 10 18 25 25 27
99 100 100 100 100 100 100 100 100 100 100 100 100 100 81 46 46 28 18 10 4 3 3 5 10 10 11 10 9 10 11 10 20 17 18 30 69 67 66 59 65 49 39 42 38 45 41 22 8 11 23 27 26 28
100 100 100 100 100 100 100 100 100 100 100 100 100 100 85 56 32 27 22 33 18 3 2 4 6 7 8 8 7 9 11 11 13 16 23 29 48 61 52 61 62 56 51 40 48 49 44 16 9 14 26 30 28 25
100 100 97 97 100 100 100 100 100 100 100 100 100 98 49 30 22 21 22 52 62 9 3 4 4 6 11 8 7 8 9 9 11 13 19 31 45 54 60 88 80 67 63 58 53 58 23 11 9 11 16 15 13 14
100 100 100 100 100 100 100 100 100 100 100 100 99 50 36 30 23 19 100 100 100 59 5 3 6 10 19 27 7 7 8 8 10 26 44 34 57 47 71 85 96 77 79 75 60 72 19 12 10 12 13 14 16 18
100 100 100 99 100 100 100 100 100 97 93 98 82 42 40 33 28 21 67 100 100 50 13 4 7 36 41 45 17 13 15 10 12 17 62 63 49 56 70 77 99 95 93 100 90 88 34 14 17 18 20 20 19 20
100 100 100 100 100 98 97 99 100 99 86 69 59 56 43 36 34 32 71 86 100 71 34 6 15 36 57 49 52 20 22 18 30 22 23 56 67 67 99 80 82 77 82 96 99 87 50 23 25 29 29 26 24 22
100 98 99 97 91 78 71 67 63 64 70 68 58 41 34 42 43 47 85 100 99 100 87 24 6 16 31 26 38 31 32 37 30 21 28 48 67 79 79 70 77 92 97 94 98 100 74 42 26 27 27 26 25 26
100 100 92 82 72 61 53 49 44 40 35 36 45 51 54 48 30 91 87 69 77 63 19 6 8 28 86 58 100 84 74 62 40 23 34 43 43 63 70 78 93 100 97 99 100 99 99 95 49 30 30 34 38 46
99 90 76 67 65 56 53 52 54 62 80 53 42 38 28 16 10 73 100 100 86 14 6 4 48 97 98 99 100 100 89 94 72 22 25 56 65 72 100 100 100 100 81 73 93 100 100 100 65 54 68 76 71 61
74 66 63 55 47 50 58 56 65 67 75 47 45 22 25 100 100 100 100 100 18 6 39 95 100 100 91 97 96 98 99 96 84 54 58 60 62 69 95 100 100 90 70 86 95 95 100 99 99 93 84 85 85 84
27 25 20 17 20 49 75 82 94 97 81 33 14 30 66 90 93 75 63 64 56 36 97 97 91 92 92 97 99 94 100 96 91 75 81 79 98 98 100 98 98 100 98 98 98 98 100 100 98 94 90 84 87 90
99 55 18 79 100 100 100 100 100 99 87 90 95 92 100 99 100 100 99 89 77 76 72 77 95 99 99 100 100 100 100 100 100 96 97 94 98 100 100 99 99 100 100 97 96 93 85 78 70 69 74 75 75 80
78 85 75 96 100 100 100 99 98 98 100 100 100 100 96 100 90 98 100 100 100 100 100 100 100 100 100 100 99 100 100 100 100 100 100 100 100 99 96 94 88 76 70 66 62 63 65 68 75 77 84 95 100 98
97 98 99 100 100 100 100 100 99 100 99 100 100 100 100 100 100 100 100 100 100 100 100 96 93 91 81 73 80 87 91 89 86 86 77 66 64 63 63 67 74 80 88 96 96 93 95 96 99 100 100 100 100 99
100 100 100 100 100 100 100 100 100 100 100 100 100 100 100 100 100 95 97 93 89 89 88 72 68 67 69 62 65 65 63 67 75 72 72 82 88 86 83 85 90 96 100 100 100 100 99 94 96 100 100 100 99 97
91 96 99 88 86 98 100 100 100 100 85 92 98 96 98 91 89 88 86 82 81 81 78 70 71 73 69 69 81 89 91 100 95 89 100 100 100 100 100 100 100 100 100 100 99 99 100 100 100 100 100 100 100 100
99 100 100 100 94 94 94 100 100 99 98 88 83 75 70 64 66 77 81 72 67 74 81 84 84 75 87 100 100 100 100 100 100 100 100 100 100 100 100 100 100 100 100 100 100 100 100 100 100 100 100 100 100 100
100 100 100 100 100 100 100 100 100 98 98 95 91 90 89 92 93 99 97 88 86 92 92 88 87 88 95 100 100 100 100 100 100 100 100 100 100 100 100 100 100 100 100 100 100 100 100 100 100 100 100 100 100 100
100 100 100 100 97 95 99 100 100 100 100 100 100 100 100 100 100 100 99 100 100 100 99 98 96 100 100 100 100 99 100 98 95 97 97 95 94 98 100 100 100 100 100 100 100 100 100 100 100 100 100 100 100 100
98 96 94 91 92 92 87 86 92 95 99 99 98 99 100 100 100 100 100 100 100 100 100 100 100 100 100 100 99 96 99 97 98 97 100 100 100 100 100 100 100 100 100 100 100 100 100 100 100 100 100 100 100 100
88 85 84 84 83 86 95 98 99 98 100 100 98 98 95 95 95 94 93 95 96 99 100 100 100 100 100 100 100 100 100 100 100 100 100 100 100 100 100 100 100 100 100 100 100 100 100 100 100 100 100 96 88 74
8 8 8 8 9 11 15 18 16 19 30 30 39 46 51 62 67 74 76 82 92 99 100 100 100 100 100 100 100 100 100 100 100 100 100 100 100 100 100 100 100 100 100 100 100 99 97 92 86 72 56 41 31 30
7 7 7 7 7 7 7 8 8 8 7 8 8 8 8 7 7 8 8 8 8 8 12 17 25 45 65 87 100 100 100 100 100 100 100 100 100 100 99 98 97 94 87 79 66 52 40 31 25 23 22 22 24 25
8 10 8 8 9 10 12 14 14 11 11 12 11 12 11 9 10 10 9 9 9 10 10 11 12 13 14 15 17 18 20 21 23 24 30 32 35 30 28 26 26 23 23 22 21 20 19 18 17 17 18 19 19 21
12 13 15 15 16 16 17 16 16 16 14 16 16 16 17 18 17 17 14 13 12 13 15 16 17 17 18 19 20 21 22 22 23 23 22 21 20 19 18 16 15 14 14 13 13 14 15 16 17 17 18 19 20 23
18 19 18 17 18 19 20 21 22 23 24 22 21 21 23 24 23 19 17 17 20 24 27 30 31 32 31 30 28 26 24 22 20 18 17 15 14 14 13 13 13 14 16 17 18 18 18 19 22 27 30 33 32 30
22 20 20 20 22 25 33 34 35 34 31 29 29 28 27 22 19 20 23 28 31 30 29 28 27 25 23 22 20 19 18 17 16 15 14 15 16 17 18 19 19 19 19 20 24 28 29 28 24 18 15 14 15 16
22 25 30 41 51 55 51 47 43 39 37 33 27 20 15 14 15 16 16 17 17 17 17 18 19 19 20 20 20 19 19 19 19 18 18 18 18 19 20 21 24 28 31 29 24 17 14 14 13 13 13 13 13 14
44 59 66 66 62 58 50 43 40 32 23 15 13 14 17 20 21 22 23 25 26 26 24 22 21 21 22 22 22 22 22 23 23 26 29 32 35 35 35 30 23 17 16 16 16 15 15 14 14 15 15 15 15 16
73 74 71 67 56 49 37 26 16 13 17 21 23 24 24 24 23 22 24 26 29 34 36 36 35 36 37 39 40 41 42 42 40 37 32 26 19 16 16 17 18 17 16 16 16 16 16 16 16 17 17 18 19 20
81 75 62 50 33 22 15 18 22 25 26 27 27 28 29 27 31 36 43 48 49 47 47 48 48 48 47 45 42 37 28 21 19 18 17 18 19 19 20 21 21 20 18 17 17 17 17 17 18 19 20 20 22 23
59 47 34 21 16 19 25 27 30 35 32 29 31 29 30 40 45 45 46 48 49 48 45 39 32 24 19 19 21 23 22 20 20 21 22 24 26 28 28 27 26 25 23 21 20 19 19 19 20 21 22 23 26 29